CW3318 Weather Reports


Display with metric or nautical units.
time (UTC)temp
F
wind
direction
speed
MPH
gust
MPH
rain 1hr
in
rain 24hr
in
rain mn
in
humidity
%
barometer
mb
20260906120458 49 212 1.0 4.0 0.02 0.40 0.16 94 1009.9
20260906120409 49 212 1.0 4.0 0.02 0.40 0.16 94 1009.9
20260906120257 49 212 1.0 4.0 0.03 0.40 0.16 94 1009.9
20260906120211 49 212 1.0 4.0 0.03 0.40 0.16 94 1009.9
20260906120107 49 212 0.0 3.0 0.03 0.40 0.16 94 1009.9
20260906115953 49 212 1.0 3.0 0.03 0.40 0.16 94 1009.9
20260906115910 49 212 1.0 3.0 0.04 0.40 0.16 94 1009.9
20260906115756 49 212 1.0 3.0 0.04 0.40 0.16 94 1009.9
20260906115657 49 212 1.0 4.0 0.05 0.40 0.16 94 1009.9
20260906115603 49 212 2.0 4.0 0.05 0.40 0.16 94 1009.9
20260906115459 49 212 2.0 4.0 0.06 0.40 0.16 94 1009.9
20260906115403 49 212 1.0 4.0 0.06 0.40 0.16 94 1009.9
20260906115309 49 212 1.0 4.0 0.06 0.40 0.16 94 1009.9
20260906115149 49 212 1.0 5.0 0.07 0.40 0.16 94 1009.9
20260906115045 49 212 2.0 5.0 0.07 0.40 0.16 94 1009.9
20260906114956 49 212 2.0 5.0 0.08 0.40 0.16 94 1009.8
20260906114853 49 212 2.0 5.0 0.08 0.40 0.16 94 1009.8
20260906114759 49 212 1.0 5.0 0.08 0.40 0.16 94 1009.9
20260906114656 49 212 0.0 5.0 0.09 0.40 0.16 94 1009.9
20260906114601 49 212 0.0 5.0 0.09 0.40 0.16 94 1010.0
20260906114518 49 212 2.0 5.0 0.09 0.40 0.16 94 1010.0
20260906114343 49 212 2.0 5.0 0.09 0.40 0.16 94 1010.0
20260906114243 49 212 2.0 5.0 0.10 0.40 0.16 94 1010.0
20260906114211 49 212 2.0 5.0 0.10 0.40 0.16 94 1010.0
20260906114054 49 212 2.0 5.0 0.10 0.40 0.16 94 1010.1
20260906113951 49 212 3.0 5.0 0.11 0.40 0.16 94 1010.2
20260906113847 49 214 2.0 4.0 0.10 0.39 0.15 94 1010.1
20260906113751 49 214 1.0 4.0 0.10 0.39 0.15 94 1010.2
20260906113719 49 214 1.0 4.0 0.10 0.39 0.15 94 1010.2
20260906113615 49 214 1.0 4.0 0.11 0.39 0.15 94 1010.2
20260906113452 49 214 2.0 4.0 0.11 0.39 0.15 94 1010.2
20260906113423 49 214 2.0 4.0 0.11 0.39 0.15 94 1010.2
20260906113300 49 214 1.0 4.0 0.11 0.39 0.15 94 1010.2
20260906113145 49 214 1.0 4.0 0.11 0.39 0.15 94 1010.3
20260906113113 49 214 1.0 4.0 0.11 0.39 0.15 94 1010.3
20260906112949 49 214 2.0 4.0 0.11 0.39 0.15 94 1010.3
20260906112906 49 214 3.0 4.0 0.11 0.39 0.15 94 1010.3
20260906112752 49 214 3.0 4.0 0.11 0.39 0.15 94 1010.3
20260906112654 49 214 2.0 5.0 0.11 0.39 0.15 94 1010.3
20260906112559 49 214 2.0 5.0 0.11 0.39 0.15 94 1010.3
20260906112454 49 214 1.0 5.0 0.12 0.39 0.15 94 1010.3
20260906112420 49 214 1.0 5.0 0.12 0.39 0.15 94 1010.3
20260906112257 49 214 2.0 5.0 0.12 0.39 0.15 94 1010.3
20260906112205 49 214 2.0 5.0 0.12 0.39 0.15 94 1010.3
20260906112101 49 214 3.0 5.0 0.12 0.39 0.15 94 1010.3
20260906112012 49 214 3.0 5.0 0.12 0.39 0.15 94 1010.3
20260906111850 49 214 4.0 5.0 0.12 0.39 0.15 94 1010.3
20260906111755 49 214 3.0 5.0 0.12 0.39 0.15 94 1010.3
20260906111714 49 214 3.0 5.0 0.12 0.39 0.15 94 1010.4
20260906111557 49 214 3.0 5.0 0.12 0.39 0.15 94 1010.3
20260906111453 49 214 3.0 5.0 0.12 0.39 0.15 94 1010.4
20260906111357 49 214 3.0 5.0 0.12 0.39 0.15 94 1010.4
20260906111314 49 213 3.0 5.0 0.12 0.39 0.15 94 1010.4
20260906111145 49 208 2.0 6.0 0.12 0.39 0.15 94 1010.4
20260906111101 49 208 2.0 6.0 0.12 0.39 0.15 94 1010.4
20260906111027 49 208 2.0 6.0 0.11 0.38 0.14 94 1010.4
20260906110932 49 208 2.0 6.0 0.11 0.38 0.14 94 1010.4
20260906110744 49 208 0.0 6.0 0.11 0.38 0.14 94 1010.5
20260906110652 50 208 1.0 6.0 0.11 0.38 0.14 94 1010.5
20260906110548 50 208 1.0 6.0 0.11 0.38 0.14 94 1010.5
20260906110457 50 208 3.0 6.0 0.11 0.38 0.14 94 1010.5
20260906110413 49 208 4.0 6.0 0.11 0.38 0.14 94 1010.5
20260906110310 50 208 5.0 6.0 0.10 0.37 0.13 94 1010.5
20260906110155 50 208 4.0 6.0 0.10 0.37 0.13 94 1010.6
20260906110101 50 208 3.0 5.0 0.11 0.37 0.13 94 1010.6
20260906105957 50 208 2.0 5.0 0.11 0.37 0.13 94 1010.6
20260906105923 50 208 2.0 5.0 0.10 0.36 0.12 94 1010.7
20260906105758 50 208 2.0 5.0 0.10 0.36 0.12 94 1010.7
20260906105711 50 208 2.0 7.0 0.09 0.35 0.11 94 1010.7
20260906105546 50 208 2.0 7.0 0.09 0.35 0.11 94 1010.8
20260906105443 50 162 2.0 7.0 0.08 0.34 0.10 94 1010.8
20260906105349 50 162 2.0 7.0 0.08 0.34 0.10 94 1010.9
20260906105246 50 162 2.0 7.0 0.07 0.33 0.09 94 1010.9
20260906105154 50 162 2.0 7.0 0.08 0.33 0.09 94 1010.9
20260906105051 50 161 2.0 7.0 0.08 0.33 0.09 94 1010.9
20260906104957 50 161 3.0 7.0 0.07 0.32 0.08 94 1011.0
20260906104855 50 161 4.0 7.0 0.07 0.32 0.08 94 1011.0
20260906104822 50 185 3.0 5.0 0.07 0.32 0.08 94 1010.9
20260906104729 50 187 3.0 5.0 0.06 0.31 0.07 94 1010.9
20260906104602 50 188 3.0 5.0 0.06 0.31 0.07 94 1011.0
20260906104506 49 189 2.0 4.0 0.06 0.31 0.07 94 1010.9
20260906104403 49 189 2.0 4.0 0.06 0.31 0.07 94 1011.0
20260906104251 49 189 2.0 4.0 0.05 0.30 0.06 94 1010.9
20260906104209 49 189 2.0 4.0 0.05 0.30 0.06 94 1010.9
20260906104053 49 190 2.0 4.0 0.05 0.30 0.06 94 1010.9
20260906104010 49 190 1.0 4.0 0.04 0.29 0.05 94 1010.9
20260906103856 50 190 1.0 5.0 0.04 0.29 0.05 94 1010.9
20260906103754 50 190 2.0 5.0 0.04 0.29 0.05 93 1010.9
20260906103702 50 190 2.0 5.0 0.04 0.29 0.05 93 1010.8
20260906103545 50 190 1.0 5.0 0.03 0.28 0.04 93 1010.8
20260906103507 50 190 1.0 5.0 0.03 0.28 0.04 93 1010.8
20260906103353 50 190 1.0 5.0 0.03 0.28 0.04 93 1010.8
20260906103250 50 190 2.0 5.0 0.03 0.28 0.04 93 1010.7
20260906103219 50 190 3.0 5.0 0.03 0.28 0.04 93 1010.7
20260906103122 50 190 2.0 5.0 0.03 0.28 0.04 93 1010.7
20260906103018 50 113 1.0 2.0 0.03 0.28 0.04 93 1010.7
20260906102843 50 92 0.0 0.0 0.03 0.28 0.04 93 1010.7
20260906102759 50 92 0.0 0.0 0.03 0.28 0.04 93 1010.7
20260906102712 50 92 0.0 0.0 0.03 0.28 0.04 93 1010.7
20260906102547 50 92 0.0 0.0 0.03 0.28 0.04 93 1010.7
20260906102512 50 92 0.0 0.0 0.02 0.27 0.03 93 1010.7
20260906102347 49 92 0.0 2.0 0.02 0.27 0.03 93 1010.7
20260906102314 49 92 0.0 2.0 0.02 0.27 0.03 93 1010.7
20260906102200 49 92 0.0 2.0 0.02 0.27 0.03 93 1010.6
20260906102052 49 92 0.0 2.0 0.02 0.27 0.03 93 1010.6
20260906101957 49 92 0.0 2.0 0.02 0.27 0.03 93 1010.6
20260906101858 49 92 0.0 2.0 0.02 0.27 0.03 94 1010.6
20260906101803 49 92 0.0 2.0 0.02 0.27 0.03 94 1010.6
20260906101700 49 92 0.0 2.0 0.02 0.27 0.03 93 1010.6
20260906101545 49 92 1.0 2.0 0.03 0.27 0.03 93 1010.6
20260906101502 49 92 1.0 2.0 0.03 0.27 0.03 93 1010.6
20260906101407 49 92 0.0 2.0 0.03 0.27 0.03 93 1010.6
20260906101245 49 92 0.0 2.0 0.03 0.27 0.03 93 1010.5
20260906101149 49 92 1.0 3.0 0.03 0.27 0.03 93 1010.5
20260906101052 49 92 1.0 3.0 0.03 0.27 0.03 93 1010.5
20260906100948 49 92 1.0 3.0 0.03 0.27 0.03 93 1010.6
20260906100854 49 92 1.0 3.0 0.03 0.27 0.03 93 1010.6
20260906100820 49 92 1.0 3.0 0.03 0.27 0.03 93 1010.6
20260906100658 49 92 1.0 3.0 0.03 0.27 0.03 93 1010.5
20260906100622 49 92 2.0 3.0 0.03 0.27 0.03 93 1010.5
20260906100443 49 92 2.0 3.0 0.03 0.27 0.03 93 1010.5
20260906100409 49 92 2.0 3.0 0.03 0.27 0.03 93 1010.5
20260906100316 49 92 2.0 3.0 0.03 0.27 0.03 93 1010.5
20260906100210 49 92 1.0 3.0 0.03 0.27 0.03 93 1010.5
20260906100046 49 92 0.0 2.0 0.02 0.26 0.02 93 1010.5
20260906095943 49 92 0.0 2.0 0.02 0.26 0.02 93 1010.5
20260906095850 49 92 1.0 2.0 0.02 0.26 0.02 93 1010.5
20260906095750 49 92 0.0 1.0 0.02 0.26 0.02 93 1010.5
20260906095657 49 92 0.0 1.0 0.02 0.26 0.02 93 1010.5
20260906095553 49 92 0.0 0.0 0.02 0.26 0.02 93 1010.5
20260906095451 49 92 0.0 0.0 0.02 0.26 0.02 93 1010.4
20260906095358 49 92 0.0 0.0 0.02 0.26 0.02 93 1010.5
20260906095325 49 92 0.0 1.0 0.02 0.26 0.02 93 1010.5
20260906095146 49 92 0.0 1.0 0.01 0.25 0.01 93 1010.4
20260906095043 49 92 0.0 1.0 0.01 0.25 0.01 93 1010.5
20260906094948 49 92 0.0 1.0 0.01 0.25 0.01 93 1010.5
20260906094846 49 92 0.0 1.0 0.01 0.25 0.01 93 1010.5
20260906094812 49 92 0.0 2.0 0.01 0.25 0.01 93 1010.5
20260906094658 49 92 0.0 2.0 0.01 0.25 0.01 93 1010.4
20260906094613 49 92 0.0 2.0 0.01 0.25 0.01 93 1010.5
20260906094458 49 92 0.0 2.0 0.01 0.25 0.01 93 1010.4
20260906094359 49 92 0.0 2.0 0.01 0.25 0.01 93 1010.4
20260906094305 49 92 0.0 2.0 0.01 0.25 0.01 93 1010.4
20260906094202 49 92 0.0 2.0 0.01 0.25 0.01 93 1010.4
20260906094111 49 92 0.0 2.0 0.01 0.25 0.01 93 1010.4
20260906093946 49 92 1.0 2.0 0.01 0.25 0.01 93 1010.4
20260906093851 50 92 1.0 2.0 0.01 0.25 0.01 93 1010.4
20260906093747 50 92 0.0 4.0 0.01 0.25 0.01 93 1010.4
20260906093658 50 92 0.0 4.0 0.01 0.25 0.01 93 1010.5
20260906093553 50 92 0.0 4.0 0.01 0.25 0.01 93 1010.4
20260906093519 50 92 0.0 5.0 0.01 0.25 0.01 93 1010.5
20260906093354 50 92 0.0 5.0 0.01 0.25 0.01 93 1010.4
20260906093258 50 92 0.0 5.0 0.01 0.25 0.01 93 1010.4
20260906093156 50 92 0.0 5.0 0.01 0.25 0.01 93 1010.5
20260906093101 50 92 1.0 5.0 0.01 0.25 0.01 93 1010.4
20260906093026 50 92 1.0 5.0 0.01 0.25 0.01 93 1010.4
20260906092847 50 92 2.0 5.0 0.01 0.25 0.01 93 1010.5
20260906092745 50 92 1.0 5.0 0.01 0.25 0.01 93 1010.5
20260906092652 50 92 1.0 5.0 0.01 0.25 0.01 93 1010.5
20260906092549 50 92 1.0 3.0 0.01 0.25 0.01 93 1010.5
20260906092457 50 92 1.0 3.0 0.01 0.25 0.01 93 1010.5
20260906092353 50 92 0.0 3.0 0.01 0.25 0.01 93 1010.5
20260906092253 50 92 0.0 3.0 0.01 0.25 0.01 93 1010.5
20260906092201 50 92 1.0 3.0 0.01 0.25 0.01 93 1010.5
20260906092055 50 92 1.0 3.0 0.01 0.25 0.01 93 1010.4
20260906092022 50 92 1.0 3.0 0.01 0.25 0.01 93 1010.4
20260906091907 50 92 1.0 3.0 0.01 0.25 0.01 93 1010.4
20260906091804 50 92 1.0 3.0 0.01 0.25 0.01 93 1010.4
20260906091733 50 92 1.0 3.0 0.01 0.25 0.01 93 1010.4
20260906091552 50 92 0.0 0.0 0.00 0.24 0.00 93 1010.4
20260906091519 50 92 0.0 0.0 0.00 0.24 0.00 93 1010.4
20260906091415 50 92 0.0 0.0 0.00 0.24 0.00 93 1010.4
20260906091259 50 92 0.0 0.0 0.00 0.24 0.00 93 1010.4
20260906091206 50 92 0.0 0.0 0.00 0.24 0.00 93 1010.4
20260906091123 50 92 0.0 0.0 0.00 0.24 0.00 93 1010.4
20260906091008 50 92 0.0 0.0 0.00 0.24 0.00 93 1010.4
20260906090905 50 92 0.0 0.0 0.00 0.24 0.00 93 1010.5
20260906090750 50 92 0.0 0.0 0.00 0.24 0.00 93 1010.5
20260906090717 50 92 0.0 0.0 0.00 0.24 0.00 93 1010.5
20260906090604 50 92 0.0 0.0 0.00 0.24 0.00 93 1010.5
20260906090501 50 92 0.0 0.0 0.00 0.24 0.00 93 1010.5
20260906090359 50 92 0.0 0.0 0.00 0.24 0.00 93 1010.5
20260906090315 50 92 0.0 0.0 0.00 0.24 0.00 93 1010.5
20260906090200 50 92 0.0 0.0 0.00 0.24 0.00 93 1010.6
20260906090046 50 92 0.0 0.0 0.00 0.24 0.00 93 1010.5
20260906085946 50 92 0.0 0.0 0.00 0.24 0.00 93 1010.6
20260906085843 50 92 0.0 0.0 0.00 0.24 0.00 93 1010.6
20260906085750 50 92 0.0 0.0 0.00 0.24 0.00 93 1010.6
20260906085648 50 92 0.0 0.0 0.00 0.24 0.00 93 1010.7
20260906085553 50 92 0.0 0.0 0.00 0.24 0.00 93 1010.6
20260906085450 50 92 0.0 0.0 0.00 0.24 0.00 93 1010.6
20260906085356 50 92 0.0 0.0 0.00 0.24 0.00 93 1010.6
20260906085316 50 92 0.0 0.0 0.00 0.24 0.00 93 1010.5
20260906085202 50 92 0.0 0.0 0.00 0.24 0.00 93 1010.5
20260906085058 50 92 0.0 0.0 0.00 0.24 0.00 93 1010.6
20260906085005 50 92 0.0 0.0 0.00 0.24 0.00 93 1010.6
20260906084903 50 92 0.0 0.0 0.00 0.24 0.00 93 1010.5
20260906084808 50 92 0.0 0.0 0.00 0.24 0.00 93 1010.5
20260906084650 50 92 0.0 0.0 0.00 0.24 0.00 93 1010.5
20260906084544 50 92 0.0 0.0 0.00 0.24 0.00 93 1010.5
20260906084511 50 92 0.0 1.0 0.00 0.24 0.00 93 1010.5
20260906084356 50 92 0.0 2.0 0.00 0.24 0.00 93 1010.5
20260906084303 50 92 0.0 2.0 0.00 0.24 0.00 93 1010.5
20260906084201 50 92 0.0 2.0 0.00 0.24 0.00 93 1010.5
20260906084057 50 92 0.0 2.0 0.00 0.24 0.00 93 1010.5
20260906084004 50 92 0.0 2.0 0.00 0.24 0.00 93 1010.5
20260906083846 50 92 0.0 2.0 0.00 0.24 0.00 93 1010.7
20260906083811 50 92 0.0 2.0 0.00 0.24 0.00 93 1010.7
20260906083649 50 92 0.0 2.0 0.00 0.24 0.00 93 1010.7
20260906083551 50 92 1.0 2.0 0.00 0.24 0.00 93 1010.7
20260906083449 50 92 0.0 2.0 0.00 0.24 0.00 93 1010.7
20260906083356 50 92 0.0 3.0 0.00 0.24 0.00 93 1010.8
20260906083253 50 92 0.0 3.0 0.00 0.24 0.00 93 1010.7
20260906083205 50 92 0.0 3.0 0.00 0.24 0.00 93 1010.7
20260906083059 50 92 0.0 3.0 0.00 0.24 0.00 93 1010.7
20260906083006 50 92 1.0 3.0 0.00 0.24 0.00 93 1010.7
20260906082903 50 92 0.0 3.0 0.00 0.24 0.00 93 1010.7
20260906082806 50 92 1.0 3.0 0.00 0.24 0.00 93 1010.7
20260906082702 50 92 1.0 3.0 0.00 0.24 0.00 93 1010.7
20260906082610 50 92 2.0 3.0 0.00 0.24 0.00 93 1010.7
20260906082449 50 92 2.0 3.0 0.00 0.24 0.00 93 1010.7
20260906082345 50 92 2.0 3.0 0.00 0.24 0.00 93 1010.7
20260906082251 50 92 2.0 3.0 0.00 0.24 0.00 93 1010.7
20260906082150 50 92 2.0 3.0 0.00 0.24 0.00 93 1010.7
20260906082046 50 92 1.0 3.0 0.00 0.24 0.00 93 1010.7
20260906082013 50 92 1.0 3.0 0.00 0.24 0.00 93 1010.7
20260906081859 50 92 0.0 3.0 0.00 0.24 0.00 93 1010.7
20260906081800 50 92 0.0 3.0 0.00 0.24 0.00 93 1010.7
20260906081707 50 92 0.0 4.0 0.00 0.24 0.00 93 1010.7
20260906081604 50 92 0.0 4.0 0.00 0.24 0.00 93 1010.8
20260906081451 50 92 0.0 4.0 0.00 0.24 0.00 93 1010.7
20260906081346 50 92 1.0 4.0 0.00 0.24 0.00 93 1010.7
20260906081243 50 92 1.0 4.0 0.00 0.24 0.00 93 1010.7
20260906081152 50 92 2.0 4.0 0.00 0.24 0.00 93 1010.7
20260906081052 50 92 1.0 4.0 0.00 0.24 0.00 93 1010.7
20260906080958 50 92 1.0 4.0 0.00 0.24 0.00 93 1010.7
20260906080925 50 92 1.0 4.0 0.00 0.24 0.00 93 1010.7
20260906080800 50 92 1.0 8.0 0.00 0.24 0.00 93 1010.7
20260906080707 50 92 0.0 8.0 0.00 0.24 0.00 93 1010.7
20260906080601 50 92 2.0 8.0 0.00 0.24 0.00 93 1010.7
20260906080528 50 92 2.0 8.0 0.00 0.24 0.00 93 1010.7
20260906080347 50 92 1.0 8.0 0.00 0.24 0.00 93 1010.6
20260906080306 50 92 1.0 8.0 0.00 0.24 0.00 93 1010.6
20260906080210 50 92 2.0 8.0 0.00 0.24 0.00 93 1010.6
20260906080051 50 92 2.0 8.0 0.00 0.25 0.00 92 1010.6
20260906075946 50 92 1.0 8.0 0.00 0.25 0.00 92 1010.5
20260906075914 50 92 1.0 8.0 0.00 0.25 0.00 92 1010.6
20260906075756 50 92 1.0 8.0 0.00 0.25 0.00 92 1010.6
20260906075654 50 92 2.0 8.0 0.00 0.25 0.00 92 1010.5
20260906075604 50 92 3.0 8.0 0.00 0.25 0.00 92 1010.5
20260906075500 50 92 4.0 7.0 0.00 0.25 0.00 92 1010.5
20260906075406 50 97 3.0 7.0 0.00 0.25 0.00 92 1010.5
20260906075332 50 98 3.0 7.0 0.00 0.25 0.00 92 1010.6
20260906075150 50 71 2.0 5.0 0.00 0.25 0.00 92 1010.5
20260906075053 50 71 3.0 8.0 0.00 0.25 0.00 92 1010.5
20260906074959 50 71 3.0 8.0 0.00 0.25 0.00 92 1010.5
20260906074852 50 71 2.0 8.0 0.01 0.25 0.00 92 1010.5
20260906074756 50 75 2.0 8.0 0.01 0.25 0.00 92 1010.4
20260906074723 50 75 2.0 8.0 0.01 0.25 0.00 92 1010.4
20260906074602 50 76 2.0 8.0 0.01 0.25 0.00 92 1010.4
20260906074500 50 21 2.0 8.0 0.01 0.25 0.00 92 1010.4
20260906074345 50 15 3.0 8.0 0.01 0.25 0.00 92 1010.4
20260906074311 50 15 4.0 8.0 0.01 0.25 0.00 92 1010.4
20260906074146 50 32 4.0 8.0 0.01 0.25 0.00 92 1010.5
20260906074052 50 27 3.0 8.0 0.01 0.25 0.00 92 1010.5
20260906073950 50 31 3.0 8.0 0.01 0.25 0.00 92 1010.5
20260906073900 50 59 3.0 8.0 0.01 0.25 0.00 92 1010.5
20260906073755 50 64 3.0 9.0 0.01 0.25 0.00 92 1010.6
20260906073702 50 64 3.0 9.0 0.01 0.25 0.00 92 1010.6
20260906073618 50 65 4.0 9.0 0.01 0.25 0.00 92 1010.6
20260906073523 50 65 4.0 10.0 0.01 0.25 0.00 92 1010.5
20260906073409 50 39 3.0 10.0 0.01 0.25 0.00 92 1010.5
20260906073247 50 21 4.0 10.0 0.01 0.25 0.00 92 1010.4
20260906073150 50 22 5.0 10.0 0.01 0.25 0.00 92 1010.3
20260906073045 50 21 5.0 10.0 0.01 0.25 0.00 92 1010.2
20260906072951 50 5 5.0 10.0 0.02 0.25 0.00 92 1010.2
20260906072917 50 358 6.0 10.0 0.02 0.25 0.00 92 1010.2
20260906072750 50 356 7.0 11.0 0.02 0.25 0.00 92 1010.2
20260906072659 50 360 6.0 11.0 0.02 0.25 0.00 92 1010.3
20260906072623 50 353 5.0 11.0 0.02 0.25 0.00 92 1010.3
20260906072520 50 352 6.0 11.0 0.03 0.25 0.00 92 1010.3
20260906072344 50 350 5.0 12.0 0.03 0.25 0.00 92 1010.2
20260906072245 50 347 5.0 12.0 0.03 0.25 0.00 92 1010.3
20260906072211 50 15 6.0 12.0 0.03 0.25 0.00 92 1010.3
20260906072056 50 38 5.0 12.0 0.04 0.25 0.00 92 1010.3
20260906071951 50 5 6.0 12.0 0.04 0.25 0.00 92 1010.2
20260906071918 50 15 7.0 12.0 0.04 0.25 0.00 92 1010.2
20260906071753 50 343 7.0 12.0 0.04 0.25 0.00 92 1010.1
20260906071700 50 334 7.0 12.0 0.04 0.25 0.00 92 1010.0
20260906071600 50 5 8.0 12.0 0.05 0.25 0.00 92 1010.0
20260906071458 50 10 7.0 12.0 0.05 0.25 0.00 92 1010.0
20260906071404 50 352 7.0 11.0 0.05 0.25 0.00 92 1010.1
20260906071310 50 330 8.0 11.0 0.05 0.25 0.00 92 1010.1
20260906071150 50 341 7.0 11.0 0.06 0.25 0.00 91 1010.2
20260906071045 50 358 6.0 11.0 0.06 0.25 0.00 91 1010.3
20260906071011 50 5 7.0 11.0 0.07 0.25 0.00 91 1010.3
20260906070851 50 10 7.0 11.0 0.07 0.25 0.00 91 1010.3
20260906070757 50 15 7.0 10.0 0.07 0.25 0.00 91 1010.3
20260906070656 50 5 7.0 10.0 0.08 0.25 0.00 91 1010.4
20260906070602 50 19 6.0 10.0 0.08 0.25 0.00 91 1010.4
20260906070526 50 22 7.0 10.0 0.08 0.25 0.00 91 1010.4
20260906070346 50 10 7.0 10.0 0.09 0.25 0.00 91 1010.4
20260906070325 50 10 7.0 10.0 0.09 0.25 0.00 91 1010.4
20260906070153 50 351 6.0 10.0 0.09 0.25 0.00 91 1010.4
20260906070046 50 350 5.0 9.0 0.09 0.25 0.25 91 1010.5
20260906065952 50 357 5.0 9.0 0.10 0.25 0.25 91 1010.5
20260906065848 50 1 5.0 9.0 0.10 0.25 0.25 91 1010.5
20260906065754 50 351 4.0 9.0 0.10 0.25 0.25 91 1010.6
20260906065713 50 352 4.0 9.0 0.10 0.25 0.25 91 1010.6
20260906065557 50 348 4.0 9.0 0.10 0.25 0.25 91 1010.6
20260906065459 50 10 4.0 9.0 0.11 0.25 0.25 91 1010.6
20260906065405 50 10 4.0 9.0 0.11 0.25 0.25 91 1010.6
20260906065311 50 331 5.0 10.0 0.11 0.25 0.25 91 1010.6
20260906065209 50 356 5.0 10.0 0.11 0.25 0.25 91 1010.6
20260906065110 50 358 5.0 10.0 0.11 0.25 0.25 91 1010.7
20260906064954 50 343 5.0 10.0 0.11 0.25 0.25 91 1010.7
20260906064851 50 335 5.0 11.0 0.10 0.24 0.24 91 1010.6
20260906064749 50 334 5.0 11.0 0.10 0.24 0.24 91 1010.6
20260906064716 50 337 5.0 11.0 0.10 0.24 0.24 91 1010.6
20260906064606 50 337 5.0 11.0 0.10 0.24 0.24 91 1010.6
20260906064501 50 337 5.0 11.0 0.10 0.24 0.24 91 1010.7
20260906064406 50 341 6.0 11.0 0.10 0.24 0.24 91 1010.7
20260906064311 50 343 6.0 11.0 0.10 0.24 0.24 91 1010.6
20260906064149 50 347 5.0 11.0 0.11 0.24 0.24 91 1010.7
20260906064045 50 352 5.0 11.0 0.11 0.24 0.24 91 1010.7
20260906064012 50 330 5.0 11.0 0.11 0.24 0.24 91 1010.7
20260906063852 50 330 5.0 9.0 0.11 0.24 0.24 90 1010.7
20260906063759 50 317 5.0 9.0 0.11 0.24 0.24 90 1010.7
20260906063656 50 346 5.0 9.0 0.11 0.24 0.24 90 1010.8
20260906063602 50 346 4.0 9.0 0.11 0.24 0.24 90 1010.8
20260906063500 50 337 4.0 8.0 0.12 0.24 0.24 90 1010.8
20260906063357 50 336 4.0 8.0 0.12 0.24 0.24 90 1010.8
20260906063248 50 336 5.0 8.0 0.12 0.24 0.24 90 1010.9
20260906063147 50 337 4.0 8.0 0.12 0.24 0.24 90 1010.9
20260906063051 50 311 3.0 5.0 0.12 0.24 0.24 90 1010.9
20260906063016 50 311 3.0 5.0 0.12 0.23 0.23 90 1011.0
20260906062911 50 310 3.0 5.0 0.12 0.23 0.23 90 1011.0
20260906062756 50 310 3.0 5.0 0.12 0.23 0.23 90 1011.0
20260906062724 50 310 3.0 5.0 0.12 0.23 0.23 90 1011.0
20260906062558 50 309 3.0 4.0 0.13 0.23 0.23 90 1011.0
20260906062504 50 308 3.0 4.0 0.12 0.22 0.22 90 1011.0
20260906062345 50 306 2.0 5.0 0.13 0.22 0.22 90 1011.1
20260906062243 50 306 2.0 5.0 0.13 0.22 0.22 90 1011.0
20260906062149 50 306 2.0 5.0 0.14 0.22 0.22 90 1011.1
20260906062045 50 306 2.0 7.0 0.13 0.21 0.21 90 1011.2
20260906061952 50 306 2.0 7.0 0.14 0.21 0.21 90 1011.2
20260906061908 50 306 2.0 7.0 0.15 0.21 0.21 90 1011.2
20260906061751 51 306 2.0 7.0 0.17 0.21 0.21 90 1011.2
20260906061701 51 306 3.0 7.0 0.18 0.21 0.21 90 1011.2
20260906061554 51 306 3.0 7.0 0.17 0.20 0.20 90 1011.2
20260906061500 51 306 3.0 7.0 0.17 0.20 0.20 90 1011.2
20260906061358 51 306 3.0 7.0 0.17 0.20 0.20 90 1011.3
20260906061305 51 306 4.0 7.0 0.16 0.19 0.19 90 1011.3
20260906061143 51 311 3.0 6.0 0.16 0.19 0.19 90 1011.2
20260906061109 51 312 3.0 6.0 0.16 0.19 0.19 90 1011.2
20260906060947 51 312 4.0 6.0 0.15 0.18 0.18 90 1011.2
20260906060845 51 312 4.0 6.0 0.15 0.18 0.18 90 1011.3
20260906060811 51 313 4.0 6.0 0.15 0.18 0.18 90 1011.3
20260906060647 51 310 3.0 7.0 0.14 0.17 0.17 90 1011.3
20260906060552 51 310 3.0 6.0 0.14 0.17 0.17 90 1011.3
20260906060450 51 310 2.0 6.0 0.14 0.17 0.17 90 1011.4
20260906060357 51 310 4.0 6.0 0.13 0.16 0.16 90 1011.4
20260906060309 51 310 4.0 6.0 0.13 0.16 0.16 90 1011.4
20260906060202 51 279 4.0 7.0 0.13 0.16 0.16 90 1011.4
20260906060057 51 273 3.0 6.0 0.13 0.16 0.16 90 1011.4
20260906055955 51 270 2.0 6.0 0.12 0.15 0.15 89 1011.4
20260906055901 51 270 2.0 6.0 0.12 0.15 0.15 89 1011.4
20260906055759 51 269 2.0 6.0 0.12 0.15 0.15 89 1011.5
20260906055710 51 269 1.0 6.0 0.12 0.15 0.15 89 1011.5
20260906055546 51 269 2.0 7.0 0.12 0.15 0.15 89 1011.5
20260906055443 51 269 3.0 7.0 0.11 0.14 0.14 89 1011.6
20260906055348 51 269 3.0 8.0 0.11 0.14 0.14 89 1011.6
20260906055306 51 269 3.0 8.0 0.11 0.14 0.14 89 1011.6
20260906055152 51 269 3.0 8.0 0.11 0.14 0.14 89 1011.6
20260906055055 51 269 2.0 8.0 0.11 0.14 0.14 89 1011.6
20260906054956 51 269 2.0 8.0 0.11 0.14 0.14 89 1011.6
20260906054903 51 269 3.0 8.0 0.11 0.14 0.14 89 1011.6
20260906054802 51 268 4.0 8.0 0.11 0.14 0.14 89 1011.5
20260906054658 51 296 4.0 8.0 0.11 0.14 0.14 89 1011.5
20260906054606 51 296 4.0 9.0 0.11 0.14 0.14 89 1011.5
20260906054530 51 296 4.0 10.0 0.11 0.14 0.14 88 1011.6
20260906054406 51 289 3.0 10.0 0.11 0.14 0.14 88 1011.6
20260906054254 51 289 4.0 10.0 0.10 0.13 0.13 88 1011.7
20260906054152 51 289 4.0 10.0 0.10 0.13 0.13 88 1011.7
20260906054048 51 290 4.0 10.0 0.10 0.13 0.13 88 1011.7
20260906053955 51 289 5.0 12.0 0.10 0.13 0.13 88 1011.7
20260906053851 52 290 6.0 12.0 0.10 0.13 0.13 88 1011.7
20260906053757 52 290 7.0 12.0 0.10 0.13 0.13 88 1011.7
20260906053654 52 261 6.0 12.0 0.10 0.13 0.13 88 1011.7
20260906053604 52 277 6.0 12.0 0.10 0.13 0.13 87 1011.8
20260906053521 52 281 7.0 12.0 0.09 0.12 0.12 87 1011.8
20260906053407 52 277 6.0 13.0 0.09 0.12 0.12 87 1011.8
20260906053243 52 273 7.0 13.0 0.09 0.12 0.12 87 1011.8
20260906053212 52 271 7.0 13.0 0.09 0.12 0.12 86 1011.8
20260906053046 52 264 7.0 17.0 0.09 0.12 0.12 86 1011.7
20260906052943 52 267 8.0 17.0 0.08 0.11 0.11 86 1011.8
20260906052853 52 280 8.0 17.0 0.08 0.11 0.11 85 1011.8
20260906052751 52 266 9.0 17.0 0.08 0.11 0.11 85 1011.8
20260906052701 52 242 10.0 17.0 0.08 0.11 0.11 85 1011.8
20260906052603 52 262 10.0 17.0 0.07 0.10 0.10 84 1011.8
20260906052500 53 250 11.0 17.0 0.07 0.10 0.10 84 1011.8
20260906052357 53 238 11.0 17.0 0.06 0.09 0.09 84 1011.8
20260906052323 53 239 10.0 17.0 0.06 0.09 0.09 84 1011.8
20260906052145 53 263 10.0 17.0 0.05 0.08 0.08 83 1011.8
20260906052050 53 221 10.0 18.0 0.05 0.08 0.08 82 1011.9
20260906051948 53 249 10.0 18.0 0.05 0.07 0.07 82 1011.9
20260906051914 53 252 11.0 18.0 0.04 0.06 0.06 82 1012.0
20260906051750 53 246 10.0 18.0 0.02 0.04 0.04 81 1011.9
20260906051659 53 232 11.0 21.0 0.01 0.03 0.03 80 1011.9
20260906051553 53 275 13.0 21.0 0.01 0.03 0.03 80 1011.9
20260906051503 53 257 13.0 21.0 0.01 0.03 0.03 80 1011.9
20260906051401 53 262 12.0 21.0 0.01 0.03 0.03 80 1011.9
20260906051307 53 246 12.0 21.0 0.01 0.03 0.03 80 1011.9
20260906051202 53 210 11.0 21.0 0.01 0.03 0.03 80 1011.9
20260906051110 53 235 12.0 21.0 0.01 0.03 0.03 80 1011.9
20260906050946 53 206 14.0 21.0 0.01 0.03 0.03 80 1011.9
20260906050848 54 234 14.0 20.0 0.01 0.03 0.03 80 1011.9
20260906050754 53 226 11.0 16.0 0.01 0.03 0.03 80 1011.8
20260906050653 53 208 10.0 15.0 0.01 0.03 0.03 79 1011.8
20260906050556 53 233 9.0 14.0 0.01 0.03 0.03 79 1011.7
20260906050454 53 237 7.0 14.0 0.01 0.03 0.03 79 1011.7
20260906050401 53 247 6.0 14.0 0.01 0.03 0.03 79 1011.6
20260906050309 53 261 7.0 15.0 0.01 0.03 0.03 79 1011.6
20260906050208 53 240 6.0 15.0 0.01 0.03 0.03 79 1011.6
20260906050043 53 230 6.0 15.0 0.01 0.06 0.03 80 1011.6
20260906050010 53 271 6.0 15.0 0.01 0.06 0.03 80 1011.6
20260906045846 54 246 6.0 15.0 0.01 0.06 0.03 80 1011.6
20260906045753 54 237 9.0 15.0 0.01 0.06 0.03 80 1011.6
20260906045652 54 246 11.0 15.0 0.01 0.06 0.03 80 1011.5
20260906045617 54 262 10.0 15.0 0.01 0.06 0.03 80 1011.5
20260906045522 54 244 10.0 15.0 0.01 0.06 0.03 80 1011.4
20260906045343 54 278 8.0 13.0 0.01 0.06 0.03 79 1011.4
20260906045309 54 262 8.0 13.0 0.01 0.06 0.03 79 1011.4
20260906045207 54 239 8.0 12.0 0.01 0.06 0.03 79 1011.4
20260906045050 54 277 7.0 12.0 0.01 0.06 0.03 79 1011.4
20260906044947 54 235 6.0 12.0 0.01 0.06 0.03 79 1011.3
20260906044853 54 257 6.0 9.0 0.01 0.06 0.03 79 1011.3
20260906044750 54 237 5.0 8.0 0.01 0.06 0.03 79 1011.3
20260906044652 54 289 4.0 10.0 0.01 0.06 0.03 79 1011.3
20260906044557 55 291 4.0 10.0 0.01 0.06 0.03 78 1011.3
20260906044516 55 291 3.0 10.0 0.01 0.06 0.03 78 1011.3
20260906044352 55 291 3.0 10.0 0.01 0.06 0.03 78 1011.3
20260906044259 55 291 3.0 13.0 0.01 0.06 0.03 77 1011.3
20260906044157 55 291 3.0 13.0 0.01 0.06 0.03 77 1011.3
20260906044052 55 291 4.0 13.0 0.01 0.06 0.03 77 1011.2
20260906044003 55 292 6.0 13.0 0.01 0.06 0.03 77 1011.3
20260906043901 55 292 6.0 13.0 0.01 0.06 0.03 77 1011.2
20260906043807 55 298 6.0 13.0 0.01 0.06 0.03 76 1011.2
20260906043727 55 336 6.0 13.0 0.01 0.06 0.03 76 1011.1
20260906043607 55 285 6.0 13.0 0.01 0.06 0.03 76 1011.2
20260906043511 55 308 6.0 13.0 0.01 0.06 0.03 76 1011.2
20260906043348 55 312 6.0 13.0 0.01 0.06 0.03 76 1011.1
20260906043247 56 316 5.0 13.0 0.01 0.06 0.03 75 1011.1
20260906043216 56 302 6.0 13.0 0.01 0.06 0.03 75 1011.0
20260906043057 56 301 7.0 13.0 0.01 0.06 0.03 75 1011.0
20260906042954 56 316 8.0 13.0 0.01 0.06 0.03 75 1011.0
20260906042850 56 315 7.0 13.0 0.01 0.06 0.03 75 1011.0
20260906042755 56 309 4.0 13.0 0.01 0.06 0.03 74 1010.9
20260906042703 56 310 5.0 13.0 0.01 0.06 0.03 74 1010.9
20260906042543 56 310 6.0 13.0 0.01 0.06 0.03 73 1010.9
20260906042508 56 312 7.0 13.0 0.01 0.06 0.03 73 1010.9
20260906042342 57 291 8.0 13.0 0.01 0.06 0.03 73 1010.8
20260906042301 57 324 7.0 13.0 0.01 0.06 0.03 73 1010.9
20260906042207 57 341 6.0 11.0 0.01 0.06 0.03 73 1010.9
20260906042042 57 343 5.0 9.0 0.01 0.06 0.03 73 1010.8
20260906042009 57 311 6.0 9.0 0.00 0.05 0.02 72 1010.8
20260906041851 57 337 5.0 9.0 0.00 0.05 0.02 72 1010.8
20260906041747 58 343 3.0 6.0 0.00 0.05 0.02 72 1010.9
20260906041655 58 260 3.0 5.0 0.00 0.05 0.02 72 1010.9
20260906041551 58 259 3.0 5.0 0.00 0.05 0.02 69 1010.9
20260906041449 58 258 3.0 4.0 0.00 0.05 0.02 69 1010.9
20260906041414 58 258 3.0 8.0 0.00 0.05 0.02 69 1010.8
20260906041259 58 258 3.0 8.0 0.00 0.05 0.02 69 1010.9
20260906041156 58 258 3.0 8.0 0.00 0.05 0.02 68 1010.9
20260906041101 58 258 2.0 8.0 0.00 0.05 0.02 67 1010.9
20260906040959 58 258 2.0 8.0 0.00 0.05 0.02 67 1010.9
20260906040904 58 258 3.0 8.0 0.00 0.05 0.02 66 1010.9
20260906040759 58 258 3.0 8.0 0.00 0.05 0.02 65 1010.9
20260906040654 58 258 4.0 8.0 0.00 0.05 0.02 65 1010.8
20260906040602 58 258 4.0 8.0 0.00 0.05 0.02 64 1010.8
20260906040459 58 260 3.0 8.0 0.00 0.05 0.02 63 1010.8
20260906040406 58 275 4.0 8.0 0.00 0.05 0.02 63 1010.8
20260906040344 58 275 5.0 8.0 0.00 0.05 0.02 62 1010.8
20260906040148 58 280 5.0 8.0 0.00 0.05 0.02 62 1010.7
20260906040042 58 284 4.0 8.0 0.00 0.05 0.02 62 1010.7
20260906040009 58 291 4.0 8.0 0.00 0.05 0.02 62 1010.7
20260906035850 58 291 4.0 8.0 0.00 0.05 0.02 61 1010.7
20260906035746 58 291 5.0 9.0 0.00 0.05 0.02 61 1010.7
20260906035652 58 289 5.0 9.0 0.00 0.05 0.02 61 1010.7
20260906035609 58 295 5.0 9.0 0.00 0.05 0.02 61 1010.7
20260906035444 58 296 4.0 9.0 0.00 0.05 0.02 61 1010.6
20260906035401 58 294 5.0 9.0 0.00 0.05 0.02 61 1010.6
20260906035251 58 294 6.0 9.0 0.00 0.05 0.02 61 1010.6
20260906035148 58 294 7.0 9.0 0.00 0.05 0.02 61 1010.7
20260906035043 58 294 6.0 9.0 0.00 0.05 0.02 60 1010.6
20260906034949 58 294 5.0 9.0 0.00 0.05 0.02 60 1010.6
20260906034846 58 291 5.0 9.0 0.00 0.05 0.02 60 1010.5
20260906034751 58 291 7.0 9.0 0.00 0.05 0.02 60 1010.5
20260906034648 58 308 7.0 10.0 0.00 0.05 0.02 60 1010.6
20260906034556 58 285 6.0 10.0 0.00 0.05 0.02 60 1010.6
20260906034454 58 306 7.0 10.0 0.00 0.05 0.02 60 1010.5
20260906034401 58 290 6.0 10.0 0.00 0.05 0.02 60 1010.5
20260906034328 59 294 5.0 10.0 0.00 0.05 0.02 60 1010.5
20260906034204 59 294 6.0 10.0 0.00 0.05 0.02 60 1010.5
20260906034059 59 294 6.0 10.0 0.00 0.05 0.02 60 1010.4
20260906034005 59 295 6.0 10.0 0.00 0.05 0.02 60 1010.4
20260906033846 59 301 6.0 10.0 0.00 0.05 0.02 60 1010.4
20260906033743 59 316 5.0 10.0 0.00 0.05 0.02 60 1010.4
20260906033652 59 267 5.0 10.0 0.00 0.05 0.02 59 1010.4
20260906033546 59 301 5.0 10.0 0.00 0.05 0.02 60 1010.3
20260906033453 59 290 5.0 9.0 0.00 0.05 0.02 60 1010.3
20260906033411 59 291 4.0 9.0 0.00 0.05 0.02 61 1010.3
20260906033254 59 271 4.0 7.0 0.00 0.05 0.02 61 1010.3
20260906033159 59 271 4.0 7.0 0.00 0.05 0.02 60 1010.2
20260906033110 59 269 4.0 7.0 0.00 0.05 0.02 61 1010.2
20260906032945 59 298 3.0 7.0 0.00 0.05 0.02 61 1010.2
20260906032912 59 298 3.0 7.0 0.00 0.05 0.02 61 1010.2
20260906032808 59 298 3.0 7.0 0.00 0.05 0.02 61 1010.2
20260906032646 59 298 3.0 7.0 0.00 0.05 0.02 61 1010.2
20260906032551 59 298 3.0 7.0 0.00 0.05 0.02 60 1010.1
20260906032448 59 301 3.0 7.0 0.00 0.05 0.02 60 1010.1
20260906032358 59 301 3.0 7.0 0.00 0.05 0.02 60 1010.1
20260906032253 59 301 4.0 9.0 0.00 0.05 0.02 60 1010.1
20260906032200 59 301 4.0 9.0 0.00 0.05 0.02 60 1010.1
20260906032128 59 301 4.0 9.0 0.00 0.05 0.02 60 1010.1
20260906032002 59 302 3.0 9.0 0.00 0.05 0.02 61 1010.1
20260906031907 59 302 4.0 9.0 0.00 0.05 0.02 60 1010.1
20260906031744 59 302 4.0 9.0 0.00 0.05 0.02 60 1010.1
20260906031647 59 301 4.0 12.0 0.00 0.05 0.02 60 1010.2
20260906031554 59 300 5.0 12.0 0.00 0.05 0.02 59 1010.1
20260906031508 59 301 6.0 12.0 0.00 0.05 0.02 59 1010.1
20260906031352 59 300 5.0 12.0 0.00 0.05 0.02 59 1010.1
20260906031259 60 311 6.0 12.0 0.00 0.05 0.02 59 1010.1
20260906031158 60 309 6.0 12.0 0.00 0.05 0.02 59 1010.1
20260906031053 60 306 6.0 12.0 0.00 0.05 0.02 59 1010.0
20260906030944 60 287 7.0 12.0 0.00 0.05 0.02 59 1010.0
20260906030900 60 312 7.0 12.0 0.00 0.05 0.02 59 1010.0
20260906030806 60 320 5.0 12.0 0.00 0.05 0.02 59 1010.0
20260906030705 60 308 5.0 12.0 0.00 0.05 0.02 59 1010.0
20260906030608 60 316 6.0 12.0 0.00 0.05 0.02 59 1010.0
20260906030514 60 316 6.0 12.0 0.00 0.05 0.02 59 1010.0
20260906030351 60 316 6.0 12.0 0.00 0.05 0.02 58 1010.0
20260906030303 60 322 7.0 12.0 0.00 0.05 0.02 58 1010.0
20260906030216 60 306 7.0 12.0 0.00 0.05 0.02 58 1010.0
20260906030055 61 312 7.0 11.0 0.00 0.05 0.02 58 1010.0
20260906030001 61 290 5.0 10.0 0.00 0.05 0.02 58 1009.9
20260906025859 61 314 4.0 10.0 0.00 0.05 0.02 57 1009.9
20260906025805 61 263 5.0 10.0 0.00 0.05 0.02 57 1010.0
20260906025701 61 301 6.0 10.0 0.00 0.05 0.02 56 1009.9
20260906025628 61 302 5.0 11.0 0.00 0.05 0.02 55 1009.9
20260906025501 61 304 6.0 11.0 0.00 0.05 0.02 55 1009.9
20260906025351 61 304 6.0 11.0 0.00 0.05 0.02 55 1009.9
20260906025248 61 283 6.0 11.0 0.00 0.05 0.02 55 1009.8
20260906025156 61 284 7.0 11.0 0.00 0.05 0.02 55 1009.8
20260906025052 61 296 7.0 11.0 0.00 0.05 0.02 55 1009.8
20260906024957 61 271 7.0 16.0 0.00 0.05 0.02 55 1009.8
20260906024854 61 271 8.0 16.0 0.00 0.05 0.02 55 1009.9
20260906024801 61 302 8.0 16.0 0.00 0.05 0.02 55 1009.8
20260906024657 61 283 7.0 16.0 0.00 0.05 0.02 55 1009.9
20260906024553 61 281 7.0 16.0 0.00 0.05 0.02 55 1009.8
20260906024457 61 296 7.0 16.0 0.00 0.05 0.02 55 1009.8
20260906024403 61 281 7.0 16.0 0.00 0.05 0.02 55 1009.7
20260906024301 61 275 9.0 16.0 0.00 0.05 0.02 55 1009.7
20260906024209 61 296 9.0 16.0 0.00 0.05 0.02 55 1009.7
20260906024048 61 295 7.0 11.0 0.00 0.05 0.02 55 1009.7
20260906023946 61 291 6.0 10.0 0.00 0.05 0.02 55 1009.7
20260906023852 61 299 6.0 10.0 0.00 0.05 0.02 56 1009.7
20260906023749 61 283 6.0 10.0 0.00 0.05 0.02 55 1009.7
20260906023649 61 302 5.0 10.0 0.00 0.05 0.02 55 1009.6
20260906023614 61 299 3.0 10.0 0.00 0.05 0.02 55 1009.6
20260906023457 61 311 5.0 10.0 0.00 0.05 0.02 55 1009.6
20260906023415 61 312 7.0 10.0 0.00 0.05 0.02 55 1009.6
20260906023305 61 298 4.0 10.0 0.00 0.05 0.02 55 1009.6
20260906023143 61 306 3.0 10.0 0.00 0.05 0.02 55 1009.6
20260906023111 61 306 3.0 10.0 0.00 0.05 0.02 55 1009.6
20260906022944 61 305 4.0 10.0 0.00 0.05 0.02 55 1009.6
20260906022910 62 305 5.0 10.0 0.00 0.05 0.02 55 1009.6
20260906022747 62 306 5.0 10.0 0.00 0.05 0.02 55 1009.6
20260906022713 62 302 4.0 11.0 0.00 0.05 0.02 55 1009.6
20260906022558 62 339 6.0 11.0 0.00 0.05 0.02 55 1009.5
20260906022515 62 311 5.0 11.0 0.00 0.05 0.02 55 1009.6
20260906022400 62 302 5.0 11.0 0.00 0.05 0.02 55 1009.5
20260906022255 62 298 6.0 11.0 0.00 0.05 0.02 54 1009.5
20260906022202 62 320 7.0 11.0 0.00 0.05 0.02 54 1009.5
20260906022116 62 311 7.0 12.0 0.00 0.05 0.02 55 1009.5
20260906022000 62 337 7.0 12.0 0.00 0.05 0.02 54 1009.6
20260906021907 62 321 7.0 12.0 0.00 0.05 0.02 54 1009.6
20260906021745 62 316 7.0 12.0 0.00 0.05 0.02 54 1009.5
20260906021704 62 312 6.0 12.0 0.00 0.05 0.02 54 1009.5
20260906021609 62 352 6.0 12.0 0.00 0.05 0.02 54 1009.5
20260906021445 62 295 8.0 12.0 0.00 0.05 0.02 54 1009.6
20260906021351 62 349 7.0 12.0 0.00 0.05 0.02 54 1009.6
20260906021309 62 314 5.0 12.0 0.00 0.05 0.02 54 1009.5
20260906021154 62 313 5.0 11.0 0.00 0.05 0.02 54 1009.6
20260906021120 62 313 6.0 11.0 0.00 0.05 0.02 53 1009.6
20260906021020 62 315 6.0 11.0 0.00 0.05 0.02 53 1009.6
20260906020904 62 310 5.0 12.0 0.00 0.05 0.02 53 1009.6
20260906020809 62 323 5.0 12.0 0.00 0.05 0.02 53 1009.6
20260906020709 62 303 6.0 12.0 0.00 0.05 0.02 53 1009.7
20260906020552 62 311 7.0 12.0 0.00 0.05 0.02 53 1009.6
20260906020449 62 312 8.0 12.0 0.00 0.05 0.02 53 1009.6
20260906020347 62 314 7.0 14.0 0.00 0.05 0.02 53 1009.7
20260906020308 62 290 7.0 14.0 0.00 0.05 0.02 53 1009.7
20260906020152 62 314 8.0 14.0 0.00 0.05 0.02 52 1009.7
20260906020056 62 321 6.0 14.0 0.00 0.05 0.02 53 1009.6
20260906015955 62 303 6.0 14.0 0.00 0.05 0.02 53 1009.7
20260906015902 62 302 6.0 14.0 0.00 0.05 0.02 52 1009.6
20260906015758 62 310 6.0 14.0 0.00 0.05 0.02 52 1009.6
20260906015706 62 284 8.0 14.0 0.00 0.05 0.02 52 1009.6
20260906015603 62 306 7.0 14.0 0.00 0.05 0.02 52 1009.7
20260906015529 63 321 6.0 14.0 0.00 0.05 0.02 52 1009.7
20260906015346 63 312 5.0 11.0 0.00 0.05 0.02 52 1009.7
20260906015312 63 314 6.0 11.0 0.00 0.05 0.02 52 1009.7
20260906015150 63 300 5.0 11.0 0.00 0.05 0.02 52 1009.7
20260906015044 63 310 4.0 11.0 0.00 0.05 0.02 52 1009.7
20260906015011 63 310 5.0 11.0 0.00 0.05 0.02 52 1009.7
20260906014851 63 310 6.0 11.0 0.00 0.05 0.02 52 1009.7
20260906014758 63 306 7.0 11.0 0.00 0.05 0.02 52 1009.7
20260906014703 63 318 8.0 11.0 0.00 0.05 0.02 52 1009.7
20260906014556 63 318 7.0 11.0 0.00 0.05 0.02 52 1009.7
20260906014503 63 320 6.0 11.0 0.00 0.05 0.02 52 1009.7
20260906014400 63 306 6.0 11.0 0.00 0.05 0.02 52 1009.7
20260906014307 63 299 5.0 11.0 0.00 0.05 0.02 51 1009.7
20260906014147 63 303 6.0 11.0 0.00 0.05 0.02 51 1009.7
20260906014052 63 300 6.0 11.0 0.00 0.05 0.02 52 1009.7
20260906013949 63 5 6.0 11.0 0.00 0.05 0.02 51 1009.7
20260906013847 63 333 8.0 11.0 0.00 0.05 0.02 51 1009.8
20260906013754 63 321 7.0 11.0 0.00 0.05 0.02 51 1009.7
20260906013653 63 300 6.0 12.0 0.00 0.05 0.02 51 1009.7
20260906013557 63 325 6.0 12.0 0.00 0.05 0.02 51 1009.7
20260906013456 63 324 7.0 12.0 0.00 0.05 0.02 51 1009.7
20260906013401 63 317 6.0 12.0 0.00 0.05 0.02 51 1009.7
20260906013258 63 310 5.0 12.0 0.00 0.05 0.02 51 1009.7
20260906013154 63 312 5.0 12.0 0.00 0.05 0.02 52 1009.6
20260906013056 63 318 5.0 12.0 0.00 0.05 0.02 51 1009.7
20260906013000 63 319 7.0 12.0 0.00 0.05 0.02 51 1009.7
20260906012905 63 320 8.0 12.0 0.00 0.05 0.02 51 1009.6
20260906012820 63 337 7.0 12.0 0.00 0.05 0.02 51 1009.6
20260906012711 63 330 5.0 12.0 0.00 0.05 0.02 51 1009.6
20260906012545 63 304 5.0 13.0 0.00 0.05 0.02 51 1009.6
20260906012451 63 291 6.0 13.0 0.00 0.05 0.02 51 1009.6
20260906012348 63 324 5.0 13.0 0.00 0.05 0.02 51 1009.6
20260906012315 63 339 6.0 13.0 0.00 0.05 0.02 51 1009.6
20260906012153 63 308 5.0 13.0 0.00 0.05 0.02 51 1009.6
20260906012058 63 308 7.0 13.0 0.00 0.05 0.02 50 1009.6
20260906012014 63 298 7.0 13.0 0.00 0.05 0.02 50 1009.6
20260906011844 63 314 8.0 13.0 0.00 0.05 0.02 50 1009.5
20260906011802 63 293 8.0 13.0 0.00 0.05 0.02 50 1009.5
20260906011650 64 315 5.0 14.0 0.00 0.05 0.02 50 1009.6
20260906011544 64 308 6.0 14.0 0.00 0.05 0.02 50 1009.6
20260906011442 64 308 5.0 14.0 0.00 0.05 0.02 49 1009.5
20260906011349 64 304 3.0 14.0 0.00 0.05 0.02 49 1009.5
20260906011250 64 327 3.0 14.0 0.00 0.05 0.02 49 1009.6
20260906011158 64 327 4.0 14.0 0.00 0.05 0.02 49 1009.5
20260906011053 64 327 7.0 14.0 0.00 0.05 0.02 48 1009.5
20260906010959 64 312 8.0 14.0 0.00 0.05 0.02 48 1009.5
20260906010856 64 302 8.0 12.0 0.00 0.05 0.02 48 1009.5
20260906010752 64 312 7.0 12.0 0.00 0.05 0.02 48 1009.5
20260906010645 64 319 7.0 12.0 0.00 0.05 0.02 48 1009.5
20260906010559 64 303 8.0 15.0 0.00 0.05 0.02 48 1009.5
20260906010503 64 308 7.0 15.0 0.00 0.05 0.02 48 1009.5
20260906010420 64 296 7.0 15.0 0.00 0.05 0.02 48 1009.5
20260906010257 64 328 6.0 15.0 0.00 0.05 0.02 47 1009.6
20260906010213 64 305 6.0 15.0 0.00 0.05 0.02 47 1009.6
20260906010044 64 321 6.0 15.0 0.00 0.05 0.02 47 1009.5
20260906005944 64 327 7.0 15.0 0.00 0.05 0.02 46 1009.6
20260906005849 64 304 9.0 15.0 0.00 0.05 0.02 46 1009.5
20260906005755 64 318 10.0 15.0 0.00 0.05 0.02 47 1009.5
20260906005653 64 303 8.0 13.0 0.00 0.05 0.02 47 1009.6
20260906005548 64 311 6.0 13.0 0.00 0.05 0.02 47 1009.6
20260906005455 64 354 5.0 14.0 0.00 0.05 0.02 47 1009.6
20260906005353 65 323 5.0 14.0 0.00 0.05 0.02 47 1009.5
20260906005306 65 321 6.0 14.0 0.00 0.05 0.02 47 1009.5
20260906005211 65 314 5.0 14.0 0.00 0.05 0.02 47 1009.6
20260906005046 65 331 5.0 14.0 0.00 0.05 0.02 47 1009.6
20260906004943 65 330 5.0 14.0 0.00 0.05 0.02 47 1009.6
20260906004910 65 327 5.0 14.0 0.00 0.05 0.02 47 1009.6
20260906004748 65 21 9.0 14.0 0.00 0.05 0.02 46 1009.5
20260906004648 65 305 9.0 14.0 0.00 0.05 0.02 46 1009.5
20260906004555 65 287 10.0 14.0 0.00 0.05 0.02 47 1009.5
20260906004452 65 312 8.0 13.0 0.00 0.05 0.02 46 1009.6
20260906004356 65 319 7.0 13.0 0.00 0.05 0.02 47 1009.5
20260906004252 65 333 7.0 13.0 0.00 0.05 0.02 47 1009.5
20260906004159 65 346 6.0 13.0 0.00 0.05 0.02 46 1009.5
20260906004056 65 10 6.0 13.0 0.00 0.05 0.02 46 1009.5
20260906004002 65 310 6.0 13.0 0.00 0.05 0.02 47 1009.5
20260906003844 65 317 6.0 14.0 0.00 0.05 0.02 47 1009.5
20260906003811 65 335 7.0 14.0 0.00 0.05 0.02 47 1009.5
20260906003649 65 334 7.0 14.0 0.00 0.05 0.02 47 1009.5
20260906003544 65 341 8.0 14.0 0.00 0.05 0.02 46 1009.5
20260906003451 65 331 7.0 14.0 0.00 0.05 0.02 46 1009.5
20260906003348 65 322 6.0 14.0 0.00 0.05 0.02 47 1009.5
20260906003259 65 314 6.0 14.0 0.00 0.05 0.02 46 1009.4
20260906003157 65 341 8.0 14.0 0.00 0.05 0.02 46 1009.5
20260906003103 65 333 9.0 14.0 0.00 0.05 0.02 46 1009.4
20260906003000 65 325 11.0 17.0 0.00 0.05 0.02 46 1009.4
20260906002857 65 312 10.0 17.0 0.00 0.05 0.02 46 1009.4
20260906002804 65 306 8.0 17.0 0.00 0.05 0.02 46 1009.4
20260906002642 65 311 7.0 17.0 0.00 0.05 0.02 46 1009.5
20260906002611 65 317 8.0 17.0 0.00 0.05 0.02 46 1009.5
20260906002446 65 309 10.0 17.0 0.00 0.05 0.02 46 1009.5
20260906002343 65 338 8.0 17.0 0.00 0.05 0.02 46 1009.5
20260906002249 65 325 8.0 17.0 0.00 0.05 0.02 46 1009.5
20260906002207 65 336 10.0 17.0 0.00 0.05 0.02 46 1009.5
20260906002052 65 342 10.0 14.0 0.00 0.05 0.02 46 1009.5
20260906001954 65 341 8.0 14.0 0.00 0.05 0.02 46 1009.5
20260906001900 65 332 8.0 15.0 0.00 0.05 0.02 46 1009.5
20260906001755 65 329 8.0 15.0 0.00 0.05 0.02 45 1009.5
20260906001704 65 336 8.0 15.0 0.00 0.05 0.02 45 1009.5
20260906001600 65 319 8.0 15.0 0.00 0.05 0.02 46 1009.5
20260906001457 65 329 9.0 15.0 0.00 0.05 0.02 46 1009.5
20260906001347 65 302 9.0 15.0 0.00 0.05 0.02 46 1009.5
20260906001242 66 306 8.0 15.0 0.00 0.05 0.02 46 1009.5
20260906001146 66 351 8.0 15.0 0.00 0.05 0.02 46 1009.5
20260906001113 66 345 9.0 15.0 0.00 0.05 0.02 46 1009.5
20260906000946 66 340 8.0 15.0 0.00 0.05 0.02 46 1009.5
20260906000844 66 319 8.0 15.0 0.00 0.05 0.02 47 1009.5
20260906000809 66 339 8.0 15.0 0.00 0.05 0.02 47 1009.5
20260906000647 66 354 8.0 15.0 0.00 0.05 0.02 46 1009.5
20260906000556 66 313 8.0 15.0 0.00 0.05 0.02 47 1009.5
20260906000455 66 325 7.0 15.0 0.00 0.05 0.02 47 1009.5
20260906000420 66 328 6.0 15.0 0.00 0.05 0.02 47 1009.4
20260906000307 66 319 7.0 15.0 0.00 0.05 0.02 47 1009.4
20260906000201 66 339 9.0 15.0 0.00 0.05 0.02 47 1009.4
20260906000056 66 288 8.0 15.0 0.00 0.07 0.02 47 1009.4
20260906000001 66 298 7.0 15.0 0.00 0.07 0.02 46 1009.4
20260905235901 66 298 8.0 15.0 0.00 0.07 0.02 46 1009.4
20260905235807 66 287 7.0 16.0 0.00 0.07 0.02 46 1009.4
20260905235645 66 305 7.0 16.0 0.00 0.07 0.02 45 1009.4
20260905235602 66 294 7.0 18.0 0.00 0.07 0.02 45 1009.4
20260905235507 66 296 8.0 18.0 0.00 0.07 0.02 45 1009.4
20260905235344 66 300 10.0 18.0 0.00 0.07 0.02 45 1009.3
20260905235245 66 296 10.0 18.0 0.00 0.07 0.02 45 1009.3
20260905235152 66 302 9.0 18.0 0.00 0.07 0.02 44 1009.3
20260905235048 67 278 9.0 18.0 0.00 0.07 0.02 44 1009.3
20260905234954 67 287 10.0 18.0 0.00 0.07 0.02 44 1009.4
20260905234912 67 271 12.0 18.0 0.00 0.07 0.02 44 1009.3
20260905234756 67 277 13.0 18.0 0.00 0.07 0.02 44 1009.3
20260905234654 67 300 11.0 18.0 0.00 0.07 0.02 44 1009.4
20260905234607 67 277 11.0 18.0 0.00 0.07 0.02 44 1009.4
20260905234443 67 312 12.0 18.0 0.00 0.07 0.02 44 1009.3
20260905234408 67 296 10.0 18.0 0.00 0.07 0.02 43 1009.4
20260905234243 67 298 9.0 15.0 0.00 0.07 0.02 43 1009.3
20260905234151 67 311 7.0 15.0 0.00 0.07 0.02 43 1009.3
20260905234116 67 324 7.0 15.0 0.00 0.07 0.02 43 1009.3
20260905233952 67 339 8.0 15.0 0.00 0.07 0.02 43 1009.3
20260905233903 67 302 9.0 15.0 0.00 0.07 0.02 43 1009.3
20260905233759 67 325 8.0 15.0 0.00 0.07 0.02 43 1009.3
20260905233657 67 304 5.0 13.0 0.00 0.07 0.02 43 1009.3
20260905233601 67 305 5.0 13.0 0.00 0.07 0.02 43 1009.3
20260905233457 67 309 4.0 14.0 0.00 0.07 0.02 43 1009.3
20260905233405 67 309 4.0 14.0 0.00 0.07 0.02 43 1009.3
20260905233245 67 15 7.0 15.0 0.00 0.07 0.02 43 1009.3
20260905233142 67 337 7.0 15.0 0.00 0.07 0.02 43 1009.3
20260905233110 67 317 7.0 15.0 0.00 0.07 0.02 43 1009.3
20260905232945 68 307 7.0 15.0 0.00 0.07 0.02 43 1009.3
20260905232848 68 302 6.0 15.0 0.00 0.07 0.02 43 1009.3
20260905232744 68 353 8.0 15.0 0.00 0.07 0.02 42 1009.4
20260905232712 68 341 9.0 15.0 0.00 0.07 0.02 42 1009.4
20260905232443 68 5 8.0 16.0 0.00 0.07 0.02 43 1009.4
20260905232414 68 329 5.0 16.0 0.00 0.07 0.02 43 1009.4
20260905232259 68 306 5.0 16.0 0.00 0.07 0.02 42 1009.4
20260905232158 68 302 7.0 16.0 0.00 0.07 0.02 42 1009.5
20260905232053 68 318 9.0 16.0 0.00 0.07 0.02 42 1009.4
20260905232000 68 303 11.0 16.0 0.00 0.07 0.02 41 1009.5
20260905231856 68 312 9.0 16.0 0.00 0.07 0.02 41 1009.5
20260905231801 69 308 8.0 16.0 0.00 0.07 0.02 42 1009.5
20260905231644 69 315 9.0 16.0 0.00 0.07 0.02 41 1009.5
20260905231609 69 287 9.0 16.0 0.00 0.07 0.02 41 1009.5
20260905231505 69 277 10.0 16.0 0.00 0.07 0.02 41 1009.6
20260905231350 69 299 11.0 16.0 0.00 0.07 0.02 42 1009.6
20260905231316 69 306 10.0 16.0 0.00 0.07 0.02 42 1009.5
20260905231154 69 302 8.0 12.0 0.00 0.07 0.02 42 1009.5
20260905231100 69 331 6.0 12.0 0.00 0.07 0.02 42 1009.6
20260905231016 68 325 4.0 9.0 0.00 0.07 0.02 41 1009.6
20260905230906 68 325 4.0 11.0 0.00 0.07 0.02 42 1009.6
20260905230744 68 341 4.0 12.0 0.00 0.07 0.02 41 1009.6
20260905230710 68 341 4.0 12.0 0.00 0.07 0.02 41 1009.6
20260905230608 68 339 4.0 12.0 0.00 0.07 0.02 41 1009.6
20260905230532 68 333 3.0 12.0 0.00 0.07 0.02 41 1009.6
20260905230349 68 333 5.0 12.0 0.00 0.07 0.02 42 1009.5
20260905230300 69 348 6.0 12.0 0.00 0.07 0.02 42 1009.6
20260905230213 69 348 6.0 12.0 0.00 0.07 0.02 41 1009.5
20260905230056 69 355 8.0 12.0 0.00 0.08 0.02 41 1009.5
20260905225952 69 322 8.0 12.0 0.00 0.08 0.02 41 1009.6
20260905225859 69 330 7.0 12.0 0.00 0.08 0.02 41 1009.6
20260905225756 69 311 6.0 12.0 0.00 0.08 0.02 41 1009.6
20260905225654 69 308 5.0 12.0 0.00 0.08 0.02 41 1009.6
20260905225603 69 306 5.0 11.0 0.00 0.08 0.02 41 1009.6
20260905225501 69 305 5.0 11.0 0.00 0.08 0.02 40 1009.5
20260905225407 69 300 4.0 11.0 0.00 0.08 0.02 40 1009.5
20260905225243 69 302 6.0 11.0 0.00 0.08 0.02 40 1009.6
20260905225150 69 303 6.0 11.0 0.00 0.08 0.02 40 1009.6
20260905225046 69 303 4.0 11.0 0.00 0.08 0.02 40 1009.6
20260905224943 69 349 1.0 9.0 0.00 0.08 0.02 40 1009.5
20260905224854 69 350 0.0 9.0 0.00 0.08 0.02 39 1009.6
20260905224752 69 350 0.0 9.0 0.00 0.08 0.02 39 1009.5
20260905224701 69 350 1.0 9.0 0.00 0.08 0.02 38 1009.6
20260905224557 69 350 3.0 11.0 0.00 0.08 0.02 38 1009.6
20260905224523 70 350 5.0 11.0 0.00 0.08 0.02 39 1009.6
20260905224359 70 350 5.0 11.0 0.00 0.08 0.02 40 1009.5
20260905224305 70 348 4.0 11.0 0.00 0.08 0.02 39 1009.5
20260905224148 70 355 4.0 11.0 0.00 0.08 0.02 39 1009.5
20260905224052 70 355 5.0 11.0 0.00 0.08 0.02 39 1009.5
20260905223949 70 329 5.0 11.0 0.00 0.08 0.02 41 1009.5
20260905223916 70 348 6.0 11.0 0.00 0.08 0.02 41 1009.5
20260905223753 70 5 7.0 11.0 0.00 0.08 0.02 41 1009.5
20260905223659 70 333 7.0 11.0 0.00 0.08 0.02 40 1009.5
20260905223604 69 338 7.0 11.0 0.00 0.08 0.02 42 1009.5
20260905223505 69 337 6.0 10.0 0.00 0.08 0.02 41 1009.5
20260905223431 69 354 5.0 9.0 0.00 0.08 0.02 41 1009.5
20260905223248 69 331 4.0 9.0 0.00 0.08 0.02 40 1009.5
20260905223146 69 329 4.0 9.0 0.00 0.08 0.02 41 1009.6
20260905223052 68 330 4.0 9.0 0.00 0.08 0.02 42 1009.6
20260905222948 68 354 4.0 9.0 0.00 0.08 0.02 42 1009.6
20260905222856 68 354 4.0 9.0 0.00 0.08 0.02 41 1009.6
20260905222816 68 352 4.0 14.0 0.00 0.08 0.02 41 1009.6
20260905222702 69 15 4.0 14.0 0.00 0.08 0.02 41 1009.6
20260905222558 69 27 5.0 14.0 0.00 0.08 0.02 42 1009.7
20260905222505 69 27 6.0 14.0 0.00 0.08 0.02 42 1009.7
20260905222342 69 27 4.0 14.0 0.00 0.08 0.02 42 1009.7
20260905222259 69 42 4.0 14.0 0.00 0.08 0.02 42 1009.6
20260905222151 69 34 5.0 14.0 0.00 0.08 0.02 42 1009.7
20260905222047 69 338 6.0 14.0 0.00 0.08 0.02 42 1009.6
20260905222014 69 345 6.0 14.0 0.00 0.08 0.02 41 1009.7
20260905221850 69 341 6.0 10.0 0.00 0.08 0.02 41 1009.7
20260905221815 69 335 4.0 10.0 0.00 0.08 0.02 41 1009.7
20260905221652 69 305 3.0 5.0 0.00 0.08 0.02 40 1009.7
20260905221557 69 302 3.0 7.0 0.00 0.08 0.02 40 1009.6
20260905221455 68 302 3.0 7.0 0.00 0.08 0.02 40 1009.6
20260905221344 68 302 2.0 8.0 0.00 0.08 0.02 40 1009.6
20260905221311 68 298 2.0 8.0 0.00 0.08 0.02 40 1009.6
20260905221151 68 298 3.0 8.0 0.00 0.08 0.02 40 1009.6
20260905221047 68 298 2.0 10.0 0.00 0.08 0.02 40 1009.6
20260905220952 68 296 3.0 10.0 0.00 0.08 0.02 42 1009.7
20260905220849 68 296 4.0 10.0 0.00 0.08 0.02 40 1009.6
20260905220750 68 295 5.0 10.0 0.00 0.08 0.02 40 1009.7
20260905220719 68 295 4.0 10.0 0.00 0.08 0.02 40 1009.7
20260905220602 68 294 5.0 10.0 0.00 0.08 0.02 41 1009.7
20260905220520 68 291 5.0 10.0 0.00 0.08 0.02 40 1009.7
20260905220404 69 304 5.0 10.0 0.00 0.08 0.02 40 1009.7
20260905220310 69 311 6.0 10.0 0.00 0.08 0.02 40 1009.7
20260905220203 69 325 6.0 9.0 0.00 0.08 0.02 40 1009.7
20260905220108 69 331 4.0 9.0 0.00 0.08 0.02 39 1009.7
20260905215946 69 335 2.0 8.0 0.00 0.08 0.02 40 1009.7
20260905215852 69 95 2.0 8.0 0.00 0.08 0.02 40 1009.7
20260905215749 70 98 2.0 8.0 0.00 0.08 0.02 39 1009.7
20260905215649 70 98 3.0 8.0 0.00 0.08 0.02 40 1009.8
20260905215554 70 97 3.0 8.0 0.00 0.08 0.02 41 1009.7
20260905215449 70 159 2.0 9.0 0.00 0.08 0.02 40 1009.7
20260905215354 70 271 1.0 9.0 0.00 0.08 0.02 41 1009.8
20260905215314 70 54 0.0 9.0 0.00 0.08 0.02 39 1009.8
20260905215200 70 53 1.0 9.0 0.00 0.08 0.02 39 1009.8
20260905215055 70 53 2.0 12.0 0.00 0.08 0.02 42 1009.8
20260905215002 70 53 2.0 12.0 0.00 0.08 0.02 41 1009.9
20260905214900 69 56 3.0 12.0 0.00 0.08 0.02 41 1009.8
20260905214806 69 55 4.0 12.0 0.00 0.08 0.02 41 1009.8
20260905214650 69 81 4.0 12.0 0.00 0.08 0.02 43 1009.9
20260905214546 69 44 4.0 12.0 0.00 0.08 0.02 41 1009.8
20260905214452 69 84 5.0 12.0 0.00 0.08 0.02 41 1009.9
20260905214350 70 45 5.0 12.0 0.00 0.08 0.02 41 1009.9
20260905214247 70 15 5.0 12.0 0.00 0.08 0.02 40 1010.0
20260905214215 70 5 4.0 9.0 0.00 0.08 0.02 41 1010.0
20260905214059 70 33 3.0 6.0 0.00 0.08 0.02 44 1009.9
20260905214000 69 360 1.0 6.0 0.00 0.08 0.02 43 1009.9
20260905213907 69 359 1.0 6.0 0.00 0.08 0.02 41 1009.9
20260905213743 69 359 3.0 6.0 0.00 0.08 0.02 43 1010.0
20260905213710 69 359 3.0 6.0 0.00 0.08 0.02 43 1010.0
20260905213545 68 358 4.0 6.0 0.00 0.08 0.02 42 1010.0
20260905213443 68 21 2.0 6.0 0.00 0.08 0.02 43 1010.0
20260905213348 69 315 2.0 6.0 0.00 0.08 0.02 43 1010.0
20260905213248 68 30 2.0 9.0 0.00 0.08 0.02 42 1010.1
20260905213156 68 30 2.0 9.0 0.00 0.08 0.02 44 1010.1
20260905213050 68 30 1.0 9.0 0.00 0.08 0.02 44 1010.0
20260905213017 68 30 2.0 9.0 0.00 0.08 0.02 44 1010.1
20260905212854 68 30 2.0 9.0 0.00 0.08 0.02 44 1010.2
20260905212800 67 30 3.0 9.0 0.00 0.08 0.02 44 1010.2
20260905212657 67 31 4.0 10.0 0.00 0.08 0.02 45 1010.1
20260905212611 67 29 4.0 10.0 0.00 0.08 0.02 45 1010.1
20260905212444 66 35 4.0 10.0 0.00 0.08 0.02 45 1010.2
20260905212401 66 341 3.0 10.0 0.00 0.08 0.02 45 1010.1
20260905212308 66 336 2.0 10.0 0.00 0.08 0.02 45 1010.1
20260905212145 66 335 2.0 11.0 0.00 0.08 0.02 44 1010.2
20260905212112 66 335 2.0 11.0 0.00 0.08 0.02 44 1010.2
20260905211952 66 337 4.0 11.0 0.00 0.08 0.02 44 1010.2
20260905211849 66 337 5.0 11.0 0.00 0.08 0.02 45 1010.2
20260905211755 67 294 5.0 11.0 0.00 0.08 0.02 45 1010.2
20260905211655 67 323 5.0 11.0 0.00 0.08 0.02 43 1010.2
20260905211551 67 315 5.0 11.0 0.00 0.08 0.02 43 1010.2
20260905211458 67 315 6.0 11.0 0.00 0.08 0.02 44 1010.2
20260905211359 67 316 6.0 13.0 0.00 0.08 0.02 44 1010.2
20260905211244 68 303 6.0 13.0 0.00 0.08 0.02 44 1010.2
20260905211211 68 337 6.0 13.0 0.00 0.08 0.02 43 1010.2
20260905211048 68 353 5.0 13.0 0.00 0.08 0.02 44 1010.3
20260905210945 68 10 3.0 13.0 0.00 0.08 0.02 43 1010.2
20260905210851 68 10 3.0 13.0 0.00 0.08 0.02 45 1010.3
20260905210748 68 10 3.0 13.0 0.00 0.08 0.02 44 1010.3
20260905210652 68 19 6.0 13.0 0.00 0.08 0.02 45 1010.3
20260905210556 68 10 6.0 13.0 0.00 0.08 0.02 45 1010.2
20260905210523 68 359 5.0 10.0 0.00 0.08 0.02 45 1010.3
20260905210359 68 350 5.0 10.0 0.00 0.08 0.02 45 1010.3
20260905210336 68 5 4.0 10.0 0.00 0.08 0.02 45 1010.3
20260905210158 67 23 3.0 7.0 0.00 0.08 0.02 47 1010.3
20260905210043 67 63 3.0 7.0 0.00 0.08 0.02 46 1010.3
20260905205944 67 64 3.0 7.0 0.00 0.08 0.02 49 1010.3
20260905205910 66 20 2.0 8.0 0.00 0.08 0.02 48 1010.3
20260905205746 66 252 2.0 8.0 0.00 0.08 0.02 48 1010.3
20260905205653 66 252 3.0 8.0 0.00 0.08 0.02 45 1010.3
20260905205556 66 252 3.0 8.0 0.00 0.08 0.02 45 1010.3
20260905205451 66 351 2.0 8.0 0.00 0.08 0.02 46 1010.3
20260905205356 66 351 2.0 8.0 0.00 0.08 0.02 45 1010.4
20260905205253 67 351 3.0 8.0 0.00 0.08 0.02 45 1010.4
20260905205204 67 352 3.0 8.0 0.00 0.08 0.02 46 1010.4
20260905205059 67 352 4.0 8.0 0.00 0.08 0.02 47 1010.3
20260905205002 66 349 4.0 9.0 0.00 0.08 0.02 47 1010.3
20260905204858 66 346 4.0 9.0 0.00 0.08 0.02 47 1010.4
20260905204825 66 346 4.0 9.0 0.00 0.08 0.02 47 1010.4
20260905204701 66 345 2.0 9.0 0.00 0.08 0.02 47 1010.4
20260905204607 66 310 1.0 12.0 0.00 0.08 0.02 48 1010.4
20260905204447 66 5 3.0 12.0 0.00 0.08 0.02 47 1010.5
20260905204414 66 5 4.0 12.0 0.00 0.08 0.02 46 1010.4
20260905204251 66 356 4.0 12.0 0.00 0.08 0.02 46 1010.5
20260905204150 66 357 4.0 12.0 0.00 0.08 0.02 48 1010.5
20260905204053 66 5 2.0 12.0 0.00 0.08 0.02 48 1010.5
20260905204020 66 359 3.0 12.0 0.00 0.08 0.02 46 1010.5
20260905203856 66 358 6.0 12.0 0.00 0.08 0.02 48 1010.6
20260905203806 66 1 7.0 12.0 0.00 0.08 0.02 48 1010.6
20260905203646 66 358 4.0 10.0 0.00 0.08 0.02 47 1010.6
20260905203601 66 15 3.0 10.0 0.00 0.08 0.02 45 1010.6
20260905203507 67 39 2.0 9.0 0.00 0.08 0.02 45 1010.6
20260905203344 67 39 4.0 9.0 0.00 0.08 0.02 48 1010.6
20260905203242 67 41 4.0 9.0 0.00 0.08 0.02 48 1010.7
20260905203210 67 27 3.0 9.0 0.00 0.08 0.02 47 1010.6
20260905203048 66 331 3.0 9.0 0.00 0.08 0.02 46 1010.5
20260905202954 67 331 3.0 9.0 0.00 0.08 0.02 47 1010.6
20260905202852 67 331 4.0 9.0 0.00 0.08 0.02 47 1010.6
20260905202758 66 332 4.0 9.0 0.00 0.08 0.02 48 1010.6
20260905202657 66 346 4.0 8.0 0.00 0.08 0.02 49 1010.6
20260905202601 66 359 3.0 8.0 0.00 0.08 0.02 49 1010.7
20260905202442 65 360 1.0 8.0 0.00 0.08 0.02 48 1010.7
20260905202409 65 333 1.0 6.0 0.00 0.08 0.02 48 1010.7
20260905202247 65 333 3.0 6.0 0.00 0.08 0.02 48 1010.7
20260905202147 65 333 3.0 6.0 0.00 0.08 0.02 50 1010.6
20260905202112 65 331 2.0 5.0 0.00 0.08 0.02 49 1010.6
20260905202018 65 208 1.0 5.0 0.00 0.08 0.02 51 1010.7
20260905201855 64 207 2.0 5.0 0.00 0.08 0.02 51 1010.6
20260905201804 64 207 3.0 5.0 0.00 0.08 0.02 50 1010.6
20260905201703 64 185 2.0 5.0 0.00 0.08 0.02 50 1010.7
20260905201559 64 185 2.0 5.0 0.00 0.08 0.02 52 1010.7
20260905201505 64 185 2.0 5.0 0.00 0.08 0.02 49 1010.7
20260905201402 64 185 2.0 5.0 0.00 0.08 0.02 49 1010.7
20260905201308 64 184 3.0 5.0 0.00 0.08 0.02 51 1010.7
20260905201149 64 23 3.0 5.0 0.00 0.08 0.02 49 1010.6
20260905201110 64 5 4.0 5.0 0.00 0.08 0.02 49 1010.6
20260905200946 64 357 3.0 6.0 0.00 0.08 0.02 51 1010.7
20260905200843 64 359 2.0 6.0 0.00 0.08 0.02 51 1010.7
20260905200810 64 360 1.0 6.0 0.00 0.08 0.02 50 1010.7
20260905200709 64 359 2.0 6.0 0.00 0.08 0.02 49 1010.8
20260905200552 64 359 3.0 6.0 0.00 0.08 0.02 50 1010.8
20260905200510 64 348 2.0 6.0 0.00 0.08 0.02 51 1010.7
20260905200400 64 347 2.0 6.0 0.00 0.08 0.02 51 1010.7
20260905200308 64 347 3.0 7.0 0.00 0.08 0.02 52 1010.7
20260905200221 64 347 3.0 7.0 0.00 0.08 0.02 50 1010.7
20260905200108 64 350 3.0 7.0 0.00 0.08 0.02 52 1010.7
20260905200000 64 318 2.0 7.0 0.00 0.08 0.02 53 1010.8
20260905195844 64 297 1.0 7.0 0.00 0.08 0.02 51 1010.8
20260905195801 64 296 0.0 7.0 0.00 0.08 0.02 50 1010.8
20260905195653 64 192 1.0 7.0 0.00 0.08 0.02 52 1010.8
20260905195556 64 192 3.0 7.0 0.00 0.08 0.02 52 1010.8
20260905195454 64 192 3.0 8.0 0.00 0.08 0.02 52 1010.8
20260905195420 64 259 2.0 8.0 0.00 0.08 0.02 55 1010.9
20260905195255 64 260 3.0 8.0 0.00 0.08 0.02 52 1010.9
20260905195202 64 260 4.0 8.0 0.00 0.08 0.02 56 1010.9
20260905195058 64 260 4.0 8.0 0.00 0.08 0.02 54 1010.9
20260905194955 64 264 2.0 8.0 0.00 0.08 0.02 55 1010.9
20260905194844 64 267 3.0 8.0 0.00 0.08 0.02 53 1010.9
20260905194801 64 267 4.0 8.0 0.00 0.08 0.02 52 1011.0
20260905194710 64 267 4.0 8.0 0.00 0.08 0.02 52 1011.0
20260905194605 64 274 3.0 9.0 0.00 0.08 0.02 51 1011.0
20260905194451 64 274 4.0 9.0 0.00 0.08 0.02 50 1011.0
20260905194347 65 273 4.0 9.0 0.00 0.08 0.02 50 1011.1
20260905194312 65 273 4.0 9.0 0.00 0.08 0.02 50 1011.0
20260905194153 66 267 3.0 9.0 0.00 0.08 0.02 52 1011.1
20260905194059 66 267 4.0 9.0 0.00 0.08 0.02 52 1011.1
20260905193957 66 267 5.0 9.0 0.00 0.08 0.02 52 1011.2
20260905193904 65 269 5.0 9.0 0.00 0.08 0.02 53 1011.2
20260905193801 65 269 5.0 9.0 0.00 0.08 0.02 53 1011.2
20260905193706 65 242 5.0 8.0 0.00 0.08 0.02 56 1011.2
20260905193545 65 177 4.0 8.0 0.00 0.08 0.02 54 1011.2
20260905193443 65 193 4.0 8.0 0.00 0.08 0.02 55 1011.1
20260905193350 65 196 5.0 8.0 0.00 0.08 0.02 53 1011.1
20260905193248 65 202 6.0 7.0 0.00 0.08 0.02 54 1011.1
20260905193147 64 236 5.0 8.0 0.00 0.08 0.02 53 1011.1
20260905193052 64 252 4.0 8.0 0.00 0.08 0.02 54 1011.1
20260905192949 64 150 4.0 8.0 0.00 0.08 0.02 52 1011.1
20260905192857 64 150 4.0 8.0 0.00 0.08 0.02 53 1011.2
20260905192824 64 150 3.0 8.0 0.00 0.08 0.02 57 1011.1
20260905192658 64 146 4.0 8.0 0.00 0.08 0.02 57 1011.1
20260905192553 64 146 4.0 8.0 0.00 0.08 0.02 53 1011.1
20260905192520 64 144 3.0 8.0 0.00 0.08 0.02 54 1011.2
20260905192405 64 138 2.0 8.0 0.00 0.08 0.02 53 1011.2
20260905192243 64 138 3.0 8.0 0.00 0.08 0.02 53 1011.2
20260905192144 64 138 3.0 8.0 0.00 0.08 0.02 53 1011.2
20260905192110 64 139 3.0 8.0 0.00 0.08 0.02 54 1011.2
20260905191947 64 138 3.0 8.0 0.00 0.08 0.02 56 1011.1
20260905191852 64 138 4.0 8.0 0.00 0.08 0.02 57 1011.1
20260905191820 64 128 4.0 7.0 0.00 0.08 0.02 57 1011.2
20260905191656 64 128 3.0 7.0 0.00 0.08 0.02 59 1011.2
20260905191552 64 128 1.0 6.0 0.00 0.08 0.02 59 1011.2
20260905191516 63 128 0.0 6.0 0.00 0.08 0.02 58 1011.2
20260905191406 63 128 0.0 6.0 0.00 0.08 0.02 58 1011.2
20260905191243 63 128 1.0 6.0 0.00 0.08 0.02 57 1011.2
20260905191151 63 128 2.0 6.0 0.00 0.08 0.02 57 1011.2
20260905191047 63 128 2.0 6.0 0.00 0.08 0.02 58 1011.2
20260905190944 63 128 3.0 6.0 0.00 0.08 0.02 59 1011.2
20260905190850 63 129 2.0 6.0 0.00 0.08 0.02 59 1011.2
20260905190751 63 130 2.0 6.0 0.00 0.08 0.02 59 1011.2
20260905190659 63 130 3.0 6.0 0.00 0.08 0.02 59 1011.2
20260905190604 63 130 4.0 6.0 0.00 0.08 0.02 62 1011.3
20260905190500 63 130 3.0 6.0 0.00 0.08 0.02 61 1011.3
20260905190405 63 131 3.0 6.0 0.00 0.08 0.02 61 1011.3
20260905190321 63 131 3.0 6.0 0.00 0.08 0.02 61 1011.3
20260905190146 62 132 3.0 6.0 0.00 0.08 0.02 61 1011.3
20260905190047 62 133 3.0 6.0 0.00 0.08 0.02 61 1011.3
20260905185948 62 133 2.0 7.0 0.00 0.08 0.02 62 1011.3
20260905185854 62 132 1.0 7.0 0.00 0.08 0.02 62 1011.4
20260905185811 62 132 0.0 7.0 0.00 0.08 0.02 63 1011.3
20260905185717 62 132 1.0 7.0 0.00 0.08 0.02 63 1011.3
20260905185602 62 132 1.0 7.0 0.00 0.08 0.02 62 1011.4
20260905185500 62 132 2.0 7.0 0.00 0.08 0.02 62 1011.4
20260905185357 61 132 2.0 7.0 0.00 0.08 0.02 63 1011.4
20260905185306 61 132 3.0 7.0 0.00 0.08 0.02 62 1011.4
20260905185152 61 132 4.0 7.0 0.00 0.08 0.02 63 1011.4
20260905185048 61 133 4.0 7.0 0.00 0.08 0.02 64 1011.4
20260905185015 61 133 3.0 7.0 0.00 0.08 0.02 66 1011.4
20260905184851 61 134 2.0 6.0 0.00 0.08 0.02 64 1011.4
20260905184758 61 133 1.0 6.0 0.00 0.08 0.02 64 1011.4
20260905184656 61 133 1.0 6.0 0.00 0.08 0.02 66 1011.4
20260905184621 61 133 1.0 6.0 0.00 0.08 0.02 65 1011.4
20260905184442 60 133 2.0 6.0 0.00 0.08 0.02 66 1011.4
20260905184348 60 133 1.0 6.0 0.00 0.08 0.02 66 1011.4
20260905184245 60 132 1.0 6.0 0.00 0.08 0.02 66 1011.4
20260905184145 60 132 1.0 6.0 0.00 0.08 0.02 67 1011.5
20260905184049 60 132 1.0 6.0 0.00 0.08 0.02 67 1011.6
20260905183954 60 132 0.0 4.0 0.00 0.08 0.02 67 1011.6
20260905183851 60 132 0.0 4.0 0.00 0.08 0.02 67 1011.6
20260905183802 60 132 1.0 4.0 0.00 0.08 0.02 67 1011.6
20260905183700 60 132 2.0 8.0 0.00 0.08 0.02 68 1011.6
20260905183556 60 132 2.0 8.0 0.00 0.08 0.02 68 1011.7
20260905183503 59 132 1.0 8.0 0.00 0.08 0.02 67 1011.7
20260905183358 59 133 2.0 8.0 0.00 0.08 0.02 68 1011.7
20260905183242 59 133 2.0 8.0 0.00 0.08 0.02 69 1011.8
20260905183210 59 133 2.0 8.0 0.00 0.08 0.02 69 1011.8
20260905183050 59 133 2.0 8.0 0.00 0.08 0.02 70 1011.8
20260905182947 59 133 2.0 8.0 0.00 0.08 0.02 69 1011.7
20260905182914 59 133 4.0 8.0 0.00 0.08 0.02 69 1011.8
20260905182751 59 133 3.0 8.0 0.00 0.08 0.02 69 1011.8
20260905182718 59 136 1.0 8.0 0.00 0.08 0.02 68 1011.8
20260905182602 58 136 1.0 8.0 0.00 0.08 0.02 69 1011.8
20260905182500 58 136 1.0 8.0 0.00 0.08 0.02 69 1011.8
20260905182404 58 136 3.0 8.0 0.00 0.08 0.02 69 1011.8
20260905182245 58 136 4.0 8.0 0.00 0.08 0.02 69 1011.8
20260905182144 58 136 4.0 8.0 0.00 0.08 0.02 70 1011.8
20260905182049 58 136 2.0 8.0 0.00 0.08 0.02 71 1011.9
20260905181954 58 135 2.0 6.0 0.00 0.08 0.02 70 1011.9
20260905181852 58 135 2.0 6.0 0.00 0.08 0.02 70 1011.8
20260905181757 58 136 1.0 6.0 0.00 0.08 0.02 70 1011.9
20260905181653 58 136 2.0 7.0 0.00 0.08 0.02 70 1011.9
20260905181553 58 136 3.0 7.0 0.00 0.08 0.02 70 1011.9
20260905181459 58 135 3.0 7.0 0.00 0.08 0.02 70 1012.0
20260905181355 57 136 1.0 7.0 0.00 0.08 0.02 71 1012.0
20260905181302 57 135 1.0 7.0 0.00 0.08 0.02 72 1012.0
20260905181200 57 135 2.0 7.0 0.00 0.08 0.02 71 1012.0
20260905181109 57 135 3.0 7.0 0.00 0.08 0.02 72 1012.0
20260905180948 57 135 3.0 7.0 0.00 0.08 0.02 75 1012.0
20260905180915 57 135 2.0 7.0 0.00 0.08 0.02 75 1011.9
20260905180748 57 139 1.0 7.0 0.00 0.08 0.02 75 1012.0
20260905180648 57 138 2.0 7.0 0.00 0.08 0.02 75 1012.0
20260905180551 56 138 2.0 7.0 0.00 0.08 0.02 75 1012.0
20260905180447 56 137 3.0 7.0 0.00 0.08 0.02 75 1012.0
20260905180343 56 137 3.0 7.0 0.00 0.08 0.02 76 1012.1
20260905180304 56 138 2.0 7.0 0.00 0.08 0.02 77 1012.1
20260905180159 56 138 2.0 8.0 0.00 0.08 0.02 76 1012.0
20260905180054 56 144 2.0 8.0 0.00 0.08 0.02 76 1012.1
20260905175950 56 144 2.0 8.0 0.00 0.08 0.02 78 1012.1
20260905175857 56 144 1.0 8.0 0.00 0.08 0.02 77 1012.1
20260905175753 55 144 1.0 8.0 0.00 0.08 0.02 77 1012.1
20260905175705 55 144 2.0 8.0 0.00 0.08 0.02 76 1012.1
20260905175559 55 144 3.0 8.0 0.00 0.08 0.02 76 1012.2
20260905175444 55 144 3.0 8.0 0.00 0.08 0.02 77 1012.2
20260905175400 55 144 3.0 8.0 0.00 0.08 0.02 77 1012.2
20260905175307 55 154 4.0 8.0 0.00 0.08 0.02 77 1012.2
20260905175142 55 157 4.0 8.0 0.00 0.08 0.02 78 1012.2
20260905175109 55 159 4.0 7.0 0.00 0.08 0.02 79 1012.2
20260905174948 54 175 5.0 7.0 0.00 0.08 0.02 79 1012.3
20260905174845 54 176 4.0 8.0 0.00 0.08 0.02 80 1012.3
20260905174751 54 177 3.0 6.0 0.00 0.08 0.02 80 1012.3
20260905174648 54 178 2.0 6.0 0.00 0.08 0.02 81 1012.3
20260905174612 54 178 2.0 6.0 0.00 0.08 0.02 81 1012.3
20260905174448 54 178 2.0 6.0 0.00 0.08 0.02 81 1012.3
20260905174355 54 178 3.0 6.0 0.00 0.08 0.02 81 1012.3
20260905174256 54 178 4.0 6.0 0.00 0.08 0.02 82 1012.3
20260905174223 53 178 3.0 6.0 0.00 0.08 0.02 83 1012.3
20260905174058 53 183 1.0 4.0 0.00 0.08 0.02 83 1012.3
20260905174004 53 183 1.0 5.0 0.00 0.08 0.02 83 1012.3
20260905173922 53 183 0.0 4.0 0.00 0.08 0.02 84 1012.3
20260905173806 53 183 1.0 4.0 0.00 0.08 0.02 84 1012.3
20260905173645 53 183 2.0 4.0 0.00 0.08 0.02 84 1012.3
20260905173545 52 183 1.0 5.0 0.00 0.08 0.02 84 1012.3
20260905173512 52 187 0.0 4.0 0.00 0.08 0.02 84 1012.3
20260905173356 52 187 1.0 4.0 0.00 0.08 0.02 84 1012.3
20260905173312 52 187 2.0 4.0 0.00 0.08 0.02 84 1012.3
20260905173153 52 187 2.0 4.0 0.00 0.08 0.02 85 1012.3
20260905173048 52 187 1.0 4.0 0.00 0.08 0.02 85 1012.3
20260905172954 52 187 0.0 2.0 0.00 0.08 0.02 85 1012.3
20260905172853 52 187 0.0 2.0 0.00 0.08 0.02 85 1012.3
20260905172750 52 187 0.0 4.0 0.00 0.08 0.02 84 1012.3
20260905172718 52 187 0.0 4.0 0.00 0.08 0.02 84 1012.3
20260905172602 52 187 0.0 4.0 0.00 0.08 0.02 84 1012.3
20260905172459 52 187 1.0 4.0 0.00 0.08 0.02 84 1012.3
20260905172405 52 187 1.0 4.0 0.00 0.08 0.02 84 1012.3
20260905172258 52 187 1.0 4.0 0.00 0.08 0.02 84 1012.3
20260905172206 51 187 2.0 4.0 0.00 0.08 0.02 84 1012.3
20260905172044 51 187 2.0 4.0 0.00 0.08 0.02 84 1012.3
20260905172010 51 187 2.0 4.0 0.00 0.08 0.02 85 1012.3
20260905171848 51 187 2.0 4.0 0.00 0.08 0.02 85 1012.3
20260905171744 51 187 2.0 4.0 0.00 0.08 0.02 86 1012.3
20260905171712 51 187 2.0 4.0 0.00 0.08 0.02 86 1012.3
20260905171548 51 187 2.0 4.0 0.00 0.08 0.02 86 1012.3
20260905171518 51 187 2.0 4.0 0.00 0.08 0.02 86 1012.3
20260905171353 51 187 2.0 4.0 0.00 0.08 0.02 87 1012.3
20260905171300 51 187 2.0 4.0 0.00 0.08 0.02 87 1012.3
20260905171219 51 187 3.0 4.0 0.00 0.08 0.02 87 1012.3
20260905171100 51 187 3.0 5.0 0.00 0.08 0.02 87 1012.3
20260905171026 51 187 2.0 5.0 0.00 0.08 0.02 86 1012.3
20260905170901 51 186 1.0 5.0 0.00 0.08 0.02 87 1012.3
20260905170807 51 186 1.0 5.0 0.00 0.08 0.02 86 1012.3
20260905170650 51 186 1.0 5.0 0.00 0.08 0.02 87 1012.3
20260905170614 51 186 1.0 5.0 0.00 0.08 0.02 87 1012.3
20260905170520 51 186 1.0 5.0 0.00 0.08 0.02 87 1012.2
20260905170353 51 186 3.0 5.0 0.00 0.08 0.02 88 1012.2
20260905170309 51 186 3.0 5.0 0.00 0.08 0.02 88 1012.2
20260905170155 51 186 3.0 5.0 0.00 0.08 0.02 89 1012.2
20260905170101 51 186 3.0 5.0 0.00 0.08 0.02 90 1012.2
20260905165957 51 186 3.0 5.0 0.00 0.08 0.02 90 1012.2
20260905165908 51 186 3.0 4.0 0.00 0.08 0.02 90 1012.2
20260905165744 51 186 3.0 4.0 0.00 0.08 0.02 90 1012.2
20260905165710 50 186 3.0 4.0 0.00 0.08 0.02 91 1012.2
20260905165629 50 186 3.0 4.0 0.00 0.08 0.02 91 1012.2
20260905165351 50 186 3.0 4.0 0.00 0.08 0.02 91 1012.3
20260905165314 50 186 3.0 4.0 0.00 0.08 0.02 91 1012.3
20260905165157 50 186 3.0 4.0 0.00 0.08 0.02 91 1012.3
20260905165059 50 186 2.0 4.0 0.00 0.08 0.02 91 1012.3
20260905164956 49 186 1.0 4.0 0.00 0.08 0.02 91 1012.3
20260905164903 49 186 2.0 4.0 0.00 0.08 0.02 91 1012.3
20260905164758 49 186 1.0 4.0 0.00 0.08 0.02 92 1012.3
20260905164645 49 186 1.0 4.0 0.00 0.08 0.02 92 1012.3
20260905164600 49 186 1.0 4.0 0.00 0.08 0.02 92 1012.3
20260905164449 49 186 2.0 4.0 0.00 0.08 0.02 92 1012.3
20260905164345 49 186 2.0 4.0 0.00 0.08 0.02 92 1012.3
20260905164312 49 186 1.0 4.0 0.00 0.08 0.02 92 1012.3
20260905164150 49 186 1.0 4.0 0.00 0.08 0.02 92 1012.3
20260905164054 49 186 2.0 4.0 0.00 0.08 0.02 92 1012.3
20260905163952 49 186 2.0 4.0 0.00 0.08 0.02 92 1012.3
20260905163858 49 186 2.0 4.0 0.00 0.08 0.02 92 1012.3
20260905163800 49 185 2.0 3.0 0.00 0.08 0.02 93 1012.2
20260905163657 49 186 1.0 3.0 0.00 0.08 0.02 93 1012.2
20260905163601 49 185 0.0 3.0 0.00 0.08 0.02 93 1012.3
20260905163528 49 185 1.0 3.0 0.00 0.08 0.02 93 1012.3
20260905163341 48 185 1.0 3.0 0.00 0.08 0.02 93 1012.2
20260905163258 48 185 1.0 3.0 0.00 0.08 0.02 93 1012.3
20260905163206 48 185 0.0 5.0 0.00 0.08 0.02 93 1012.3
20260905163046 48 185 0.0 5.0 0.00 0.08 0.02 93 1012.2
20260905162951 48 185 1.0 5.0 0.00 0.08 0.02 93 1012.3
20260905162847 48 185 1.0 5.0 0.00 0.08 0.02 94 1012.3
20260905162813 48 185 1.0 5.0 0.00 0.08 0.02 94 1012.2
20260905162652 48 185 2.0 5.0 0.00 0.08 0.02 94 1012.3
20260905162555 48 185 2.0 5.0 0.00 0.08 0.02 94 1012.3
20260905162453 48 186 2.0 5.0 0.00 0.08 0.02 94 1012.3
20260905162404 48 186 2.0 5.0 0.00 0.08 0.02 94 1012.3
20260905162305 48 185 2.0 5.0 0.00 0.08 0.02 94 1012.3
20260905162200 47 185 2.0 5.0 0.00 0.08 0.02 94 1012.3
20260905162125 47 185 3.0 5.0 0.00 0.08 0.02 94 1012.3
20260905162029 47 185 4.0 5.0 0.00 0.08 0.02 95 1012.3
20260905161905 47 185 2.0 6.0 0.00 0.08 0.02 95 1012.4
20260905161750 47 185 2.0 5.0 0.00 0.08 0.02 95 1012.4
20260905161653 47 185 2.0 5.0 0.00 0.08 0.02 95 1012.4
20260905161618 47 185 1.0 5.0 0.00 0.08 0.02 95 1012.4
20260905161453 47 185 1.0 5.0 0.00 0.08 0.02 95 1012.4
20260905161359 47 185 2.0 5.0 0.00 0.08 0.02 95 1012.4
20260905161303 47 185 3.0 5.0 0.00 0.08 0.02 95 1012.4
20260905161159 47 185 3.0 5.0 0.00 0.08 0.02 95 1012.4
20260905161106 47 185 3.0 5.0 0.00 0.08 0.02 95 1012.4
20260905161002 47 185 2.0 5.0 0.00 0.08 0.02 95 1012.4
20260905160842 46 185 2.0 5.0 0.00 0.08 0.02 95 1012.4
20260905160748 46 185 1.0 5.0 0.00 0.08 0.02 95 1012.4
20260905160648 46 185 2.0 5.0 0.00 0.08 0.02 95 1012.4
20260905160611 46 185 3.0 5.0 0.00 0.08 0.02 95 1012.4
20260905160516 46 185 3.0 5.0 0.00 0.08 0.02 95 1012.4
20260905160348 46 185 3.0 5.0 0.00 0.08 0.02 95 1012.4
20260905160324 46 185 3.0 5.0 0.00 0.08 0.02 95 1012.4
20260905160218 46 185 3.0 4.0 0.00 0.08 0.02 95 1012.4
20260905160120 46 185 3.0 4.0 0.00 0.08 0.02 95 1012.4
20260905160001 46 185 2.0 4.0 0.00 0.08 0.02 95 1012.4
20260905155845 46 185 2.0 4.0 0.00 0.08 0.02 95 1012.4
20260905155800 46 185 2.0 4.0 0.00 0.08 0.02 95 1012.4
20260905155708 45 185 2.0 4.0 0.00 0.08 0.02 95 1012.4
20260905155544 45 185 3.0 4.0 0.00 0.08 0.02 95 1012.4
20260905155509 45 185 3.0 4.0 0.00 0.08 0.02 95 1012.4
20260905155345 45 185 3.0 4.0 0.00 0.08 0.02 95 1012.5
20260905155247 45 185 3.0 4.0 0.00 0.08 0.02 95 1012.4
20260905155155 45 185 3.0 4.0 0.00 0.08 0.02 95 1012.4
20260905155050 45 185 2.0 4.0 0.00 0.08 0.02 95 1012.5
20260905154957 45 185 3.0 4.0 0.00 0.08 0.02 95 1012.5
20260905154854 45 185 3.0 4.0 0.00 0.08 0.02 95 1012.5
20260905154801 45 185 2.0 4.0 0.00 0.08 0.02 95 1012.4
20260905154701 45 185 2.0 4.0 0.00 0.08 0.02 95 1012.5
20260905154557 45 185 2.0 4.0 0.00 0.08 0.02 95 1012.4
20260905154504 45 185 2.0 4.0 0.00 0.08 0.02 95 1012.4
20260905154409 45 185 2.0 4.0 0.00 0.08 0.02 95 1012.4
20260905154303 45 185 2.0 4.0 0.00 0.08 0.02 95 1012.4
20260905154151 45 185 2.0 4.0 0.00 0.08 0.02 95 1012.4
20260905154046 45 185 2.0 4.0 0.00 0.08 0.02 95 1012.4
20260905154013 45 185 2.0 4.0 0.00 0.08 0.02 95 1012.4
20260905153922 45 185 2.0 4.0 0.00 0.08 0.02 95 1012.4
20260905153757 45 185 2.0 4.0 0.00 0.08 0.02 95 1012.4
20260905153656 45 185 2.0 5.0 0.00 0.08 0.02 95 1012.4
20260905153600 45 185 1.0 5.0 0.00 0.08 0.02 95 1012.4
20260905153456 45 185 1.0 5.0 0.00 0.08 0.02 95 1012.4
20260905153422 45 185 1.0 5.0 0.00 0.08 0.02 95 1012.4
20260905153258 45 185 2.0 5.0 0.00 0.08 0.02 95 1012.4
20260905153150 45 185 2.0 5.0 0.00 0.08 0.02 95 1012.4
20260905153046 45 185 2.0 5.0 0.00 0.08 0.02 95 1012.4
20260905153012 45 185 2.0 5.0 0.00 0.08 0.02 95 1012.5
20260905152918 45 185 3.0 5.0 0.00 0.08 0.02 95 1012.5
20260905152753 45 185 3.0 5.0 0.00 0.08 0.02 95 1012.5
20260905152720 45 185 3.0 6.0 0.00 0.08 0.02 95 1012.5
20260905152554 45 185 3.0 6.0 0.00 0.08 0.02 95 1012.5
20260905152500 45 184 3.0 5.0 0.00 0.08 0.02 95 1012.5
20260905152400 44 184 3.0 5.0 0.00 0.08 0.02 95 1012.5
20260905152307 44 184 3.0 5.0 0.00 0.08 0.02 95 1012.5
20260905152145 44 184 3.0 6.0 0.00 0.08 0.02 95 1012.5
20260905152100 44 184 3.0 6.0 0.00 0.08 0.02 95 1012.5
20260905152007 44 184 2.0 6.0 0.00 0.08 0.02 95 1012.5
20260905151845 44 184 2.0 7.0 0.00 0.08 0.02 95 1012.4
20260905151747 44 184 2.0 7.0 0.00 0.08 0.02 95 1012.5
20260905151714 44 184 2.0 7.0 0.00 0.08 0.02 95 1012.5
20260905151617 44 184 2.0 7.0 0.00 0.08 0.02 95 1012.5
20260905151522 44 184 4.0 7.0 0.00 0.08 0.02 95 1012.5
20260905151358 44 184 5.0 7.0 0.00 0.08 0.02 95 1012.5
20260905151305 44 184 3.0 7.0 0.00 0.08 0.02 95 1012.5
20260905151143 44 183 3.0 7.0 0.00 0.08 0.02 95 1012.4
20260905151043 44 183 4.0 7.0 0.00 0.08 0.02 95 1012.4
20260905151008 44 184 4.0 7.0 0.00 0.08 0.02 95 1012.4
20260905150844 44 183 4.0 7.0 0.00 0.08 0.02 95 1012.4
20260905150751 44 183 4.0 8.0 0.00 0.08 0.02 95 1012.4
20260905150650 44 183 2.0 6.0 0.00 0.08 0.02 95 1012.4
20260905150555 44 183 3.0 6.0 0.00 0.08 0.02 95 1012.4
20260905150512 44 183 4.0 6.0 0.00 0.08 0.02 95 1012.4
20260905150356 44 183 3.0 6.0 0.00 0.08 0.02 95 1012.5
20260905150256 44 181 3.0 5.0 0.00 0.08 0.02 95 1012.4
20260905150201 44 181 3.0 5.0 0.00 0.08 0.02 95 1012.4
20260905150045 44 182 3.0 6.0 0.00 0.08 0.02 95 1012.4
20260905145942 44 182 3.0 7.0 0.00 0.08 0.02 95 1012.4
20260905145848 43 181 3.0 7.0 0.00 0.08 0.02 95 1012.4
20260905145745 43 181 3.0 7.0 0.00 0.08 0.02 95 1012.4
20260905145654 43 181 4.0 7.0 0.00 0.08 0.02 95 1012.4
20260905145552 43 181 3.0 7.0 0.00 0.08 0.02 95 1012.3
20260905145449 43 181 3.0 7.0 0.00 0.08 0.02 95 1012.3
20260905145357 43 180 3.0 7.0 0.00 0.08 0.02 95 1012.3
20260905145254 43 180 4.0 7.0 0.00 0.08 0.02 95 1012.3
20260905145202 43 180 4.0 7.0 0.00 0.08 0.02 95 1012.3
20260905145058 43 175 3.0 7.0 0.00 0.08 0.02 95 1012.3
20260905145005 43 163 2.0 5.0 0.00 0.08 0.02 95 1012.3
20260905144845 43 162 2.0 5.0 0.00 0.08 0.02 95 1012.3
20260905144742 43 162 2.0 5.0 0.00 0.08 0.02 95 1012.3
20260905144651 43 162 2.0 5.0 0.00 0.08 0.02 95 1012.3
20260905144546 43 162 1.0 5.0 0.00 0.08 0.02 95 1012.3
20260905144442 43 162 1.0 5.0 0.00 0.08 0.02 95 1012.3
20260905144348 43 162 2.0 5.0 0.00 0.08 0.02 95 1012.3
20260905144248 43 162 2.0 5.0 0.00 0.08 0.02 95 1012.4
20260905144156 43 162 2.0 5.0 0.00 0.08 0.02 95 1012.3
20260905144052 43 162 1.0 5.0 0.00 0.08 0.02 95 1012.3
20260905143958 43 162 1.0 5.0 0.00 0.08 0.02 95 1012.3
20260905143854 43 161 1.0 3.0 0.00 0.08 0.02 95 1012.3
20260905143800 43 161 1.0 3.0 0.00 0.08 0.02 95 1012.3
20260905143705 43 161 1.0 3.0 0.00 0.08 0.02 95 1012.3
20260905143607 43 161 1.0 3.0 0.00 0.08 0.02 95 1012.3
20260905143509 43 161 1.0 3.0 0.00 0.08 0.02 95 1012.3
20260905143345 43 161 1.0 3.0 0.00 0.08 0.02 95 1012.2
20260905143241 43 161 1.0 3.0 0.00 0.08 0.02 95 1012.2
20260905143150 43 161 1.0 3.0 0.00 0.08 0.02 95 1012.2
20260905143046 42 161 1.0 3.0 0.00 0.08 0.02 95 1012.2
20260905142943 42 161 1.0 3.0 0.00 0.08 0.02 95 1012.2
20260905142854 42 161 1.0 3.0 0.00 0.08 0.02 95 1012.2
20260905142752 42 161 2.0 3.0 0.00 0.08 0.02 95 1012.2
20260905142659 42 161 2.0 3.0 0.00 0.08 0.02 95 1012.1
20260905142555 42 161 1.0 3.0 0.00 0.08 0.02 95 1012.1
20260905142502 42 161 1.0 2.0 0.00 0.08 0.02 95 1012.0
20260905142359 42 161 0.0 2.0 0.00 0.08 0.02 95 1012.0
20260905142309 42 161 0.0 0.0 0.00 0.08 0.02 95 1012.0
20260905142147 42 161 0.0 0.0 0.00 0.08 0.02 95 1012.0
20260905142043 42 161 0.0 0.0 0.00 0.08 0.02 94 1012.1
20260905141950 42 161 0.0 2.0 0.00 0.08 0.02 94 1012.1
20260905141847 42 161 0.0 2.0 0.00 0.08 0.02 94 1012.1
20260905141753 42 161 0.0 2.0 0.00 0.08 0.02 94 1012.0
20260905141652 42 161 0.0 3.0 0.00 0.08 0.02 95 1012.1
20260905141600 42 161 0.0 3.0 0.00 0.08 0.02 95 1012.1
20260905141457 42 161 0.0 3.0 0.00 0.08 0.02 94 1012.0
20260905141422 42 161 0.0 3.0 0.00 0.08 0.02 94 1012.0
20260905141307 42 161 1.0 3.0 0.00 0.08 0.02 95 1012.0
20260905141144 42 161 1.0 3.0 0.00 0.08 0.02 95 1011.9
20260905141049 42 161 1.0 3.0 0.00 0.08 0.02 95 1011.9
20260905140945 42 161 1.0 3.0 0.00 0.08 0.02 95 1011.9
20260905140847 42 161 1.0 3.0 0.00 0.08 0.02 95 1011.9
20260905140753 42 161 0.0 2.0 0.00 0.08 0.02 95 1011.9
20260905140652 42 161 0.0 1.0 0.00 0.08 0.02 95 1011.9
20260905140557 42 161 0.0 1.0 0.00 0.08 0.02 94 1011.9
20260905140451 42 161 0.0 2.0 0.00 0.08 0.02 94 1011.9
20260905140348 42 161 0.0 2.0 0.00 0.08 0.02 94 1011.9
20260905140304 42 161 0.0 2.0 0.00 0.08 0.02 94 1011.9
20260905140203 42 161 0.0 2.0 0.00 0.08 0.02 94 1011.9
20260905140059 42 161 0.0 3.0 0.00 0.08 0.02 94 1011.9
20260905140002 42 161 0.0 3.0 0.00 0.08 0.02 94 1011.9
20260905135859 42 161 1.0 3.0 0.00 0.08 0.02 94 1011.9
20260905135806 42 161 1.0 3.0 0.00 0.08 0.02 94 1011.9
20260905135645 42 161 1.0 3.0 0.00 0.08 0.02 94 1011.9
20260905135545 42 161 1.0 3.0 0.01 0.08 0.02 94 1011.9
20260905135510 42 161 1.0 3.0 0.01 0.08 0.02 94 1011.8
20260905135346 42 161 1.0 3.0 0.01 0.08 0.02 94 1011.8
20260905135252 42 161 2.0 3.0 0.01 0.08 0.02 95 1011.8
20260905135151 42 161 1.0 3.0 0.01 0.08 0.02 95 1011.8
20260905135056 42 161 1.0 5.0 0.01 0.08 0.02 95 1011.8
20260905135013 42 161 2.0 5.0 0.01 0.08 0.02 95 1011.8
20260905134842 42 161 2.0 5.0 0.01 0.08 0.02 94 1011.7
20260905134800 42 161 2.0 5.0 0.01 0.08 0.02 94 1011.8
20260905134709 42 161 1.0 5.0 0.01 0.08 0.02 95 1011.8
20260905134612 42 161 1.0 5.0 0.01 0.08 0.02 94 1011.7
20260905134508 42 161 1.0 5.0 0.01 0.08 0.02 95 1011.8
20260905134354 42 161 1.0 5.0 0.01 0.08 0.02 94 1011.8
20260905134319 42 161 2.0 5.0 0.01 0.08 0.02 95 1011.8
20260905134157 42 161 2.0 5.0 0.01 0.08 0.02 94 1011.7
20260905134052 42 161 2.0 5.0 0.01 0.08 0.02 94 1011.7
20260905134002 42 161 2.0 5.0 0.01 0.08 0.02 94 1011.7
20260905133857 42 161 2.0 5.0 0.01 0.08 0.02 94 1011.8
20260905133753 42 161 2.0 5.0 0.01 0.08 0.02 94 1011.8
20260905133659 42 161 2.0 5.0 0.01 0.08 0.02 94 1011.8
20260905133554 42 161 1.0 5.0 0.01 0.08 0.02 94 1011.8
20260905133451 42 161 2.0 5.0 0.01 0.08 0.02 94 1011.7
20260905133417 42 161 2.0 4.0 0.01 0.08 0.02 94 1011.8
20260905133306 42 161 2.0 3.0 0.01 0.08 0.02 94 1011.8
20260905133145 42 160 2.0 3.0 0.01 0.08 0.02 94 1011.8
20260905133101 42 160 2.0 2.0 0.01 0.08 0.02 94 1011.8
20260905133006 42 160 1.0 2.0 0.01 0.08 0.02 94 1011.8
20260905132843 42 160 1.0 3.0 0.01 0.08 0.02 94 1011.8
20260905132810 42 160 1.0 5.0 0.01 0.08 0.02 94 1011.8
20260905132652 42 160 1.0 5.0 0.01 0.08 0.02 94 1011.8
20260905132549 42 160 1.0 5.0 0.01 0.08 0.02 94 1011.8
20260905132455 42 160 1.0 5.0 0.01 0.08 0.02 94 1011.8
20260905132352 42 160 1.0 5.0 0.01 0.08 0.02 94 1011.8
20260905132247 42 160 1.0 6.0 0.01 0.08 0.02 94 1011.8
20260905132155 42 160 1.0 8.0 0.01 0.08 0.02 94 1011.8
20260905132052 42 160 2.0 8.0 0.01 0.08 0.02 94 1011.8
20260905132001 42 160 2.0 8.0 0.01 0.08 0.02 94 1011.8
20260905131907 42 160 1.0 8.0 0.01 0.08 0.02 94 1011.7
20260905131743 42 160 1.0 8.0 0.01 0.08 0.02 94 1011.7
20260905131710 42 160 2.0 8.0 0.01 0.08 0.02 94 1011.7
20260905131545 42 160 3.0 8.0 0.01 0.08 0.02 94 1011.7
20260905131442 42 160 4.0 8.0 0.01 0.08 0.02 94 1011.7
20260905131408 42 160 5.0 8.0 0.01 0.08 0.02 94 1011.7
20260905131258 42 161 5.0 8.0 0.01 0.08 0.02 94 1011.6
20260905131156 42 163 6.0 8.0 0.01 0.08 0.02 94 1011.7
20260905131100 42 167 5.0 8.0 0.01 0.08 0.02 94 1011.7
20260905130957 42 171 4.0 6.0 0.01 0.08 0.02 94 1011.7
20260905130904 42 171 3.0 6.0 0.01 0.08 0.02 94 1011.7
20260905130742 42 173 2.0 6.0 0.01 0.08 0.02 94 1011.7
20260905130711 42 173 3.0 6.0 0.01 0.08 0.02 94 1011.7
20260905130549 42 173 3.0 6.0 0.01 0.08 0.02 94 1011.7
20260905130506 42 173 3.0 6.0 0.01 0.08 0.02 94 1011.7
20260905130348 42 173 3.0 6.0 0.01 0.08 0.02 94 1011.7
20260905130325 42 173 3.0 7.0 0.01 0.08 0.02 94 1011.7
20260905130150 42 172 3.0 7.0 0.01 0.08 0.02 94 1011.6
20260905130054 42 172 3.0 7.0 0.01 0.08 0.02 94 1011.6
20260905125952 42 171 2.0 7.0 0.01 0.08 0.02 94 1011.6
20260905125857 42 171 3.0 7.0 0.01 0.08 0.02 94 1011.5
20260905125807 42 171 4.0 7.0 0.01 0.08 0.02 94 1011.5
20260905125705 42 171 3.0 7.0 0.01 0.08 0.02 94 1011.5
20260905125548 42 171 4.0 7.0 0.00 0.07 0.01 94 1011.5
20260905125445 42 171 3.0 7.0 0.00 0.07 0.01 94 1011.5
20260905125351 42 169 3.0 6.0 0.00 0.07 0.01 94 1011.5
20260905125249 42 168 3.0 6.0 0.00 0.07 0.01 94 1011.5
20260905125158 42 167 3.0 6.0 0.00 0.07 0.01 94 1011.5
20260905125053 42 167 2.0 6.0 0.00 0.07 0.01 94 1011.5
20260905124951 42 167 3.0 6.0 0.00 0.07 0.01 94 1011.5
20260905124856 42 167 3.0 6.0 0.00 0.07 0.01 94 1011.5
20260905124753 42 166 2.0 6.0 0.00 0.07 0.01 94 1011.6
20260905124701 42 165 2.0 6.0 0.00 0.07 0.01 94 1011.6
20260905124557 42 165 2.0 6.0 0.00 0.07 0.01 94 1011.6
20260905124524 42 165 2.0 6.0 0.00 0.07 0.01 94 1011.6
20260905124345 42 165 3.0 6.0 0.00 0.07 0.01 94 1011.6
20260905124242 42 165 3.0 6.0 0.00 0.07 0.01 94 1011.6
20260905124209 42 165 2.0 6.0 0.00 0.07 0.01 94 1011.6
20260905124052 42 163 1.0 6.0 0.00 0.07 0.01 94 1011.6
20260905123950 42 163 3.0 6.0 0.00 0.07 0.01 94 1011.6
20260905123857 42 163 3.0 5.0 0.00 0.07 0.01 94 1011.7
20260905123755 42 163 3.0 5.0 0.00 0.07 0.01 94 1011.7
20260905123725 42 163 2.0 5.0 0.00 0.07 0.01 94 1011.7
20260905123559 42 163 2.0 5.0 0.00 0.07 0.01 94 1011.6
20260905123506 42 163 2.0 5.0 0.00 0.07 0.01 94 1011.6
20260905123402 42 163 2.0 5.0 0.00 0.07 0.01 94 1011.7
20260905123308 42 163 2.0 5.0 0.00 0.07 0.01 94 1011.7
20260905123146 42 163 1.0 5.0 0.00 0.07 0.01 94 1011.6
20260905123042 42 163 2.0 5.0 0.00 0.07 0.01 94 1011.6
20260905122953 42 163 2.0 5.0 0.00 0.07 0.01 94 1011.7
20260905122851 42 162 3.0 5.0 0.00 0.07 0.01 94 1011.7
20260905122818 42 162 3.0 5.0 0.00 0.07 0.01 94 1011.7
20260905122656 42 161 2.0 5.0 0.00 0.07 0.01 94 1011.7
20260905122559 42 160 2.0 5.0 0.00 0.07 0.01 94 1011.7
20260905122456 42 160 2.0 5.0 0.00 0.07 0.01 94 1011.7
20260905122421 42 160 2.0 5.0 0.00 0.07 0.01 94 1011.6
20260905122326 42 159 2.0 5.0 0.00 0.07 0.01 94 1011.7
20260905122144 42 158 2.0 3.0 0.00 0.07 0.01 94 1011.7
20260905122109 42 157 1.0 3.0 0.00 0.07 0.01 94 1011.6
20260905121946 42 156 1.0 3.0 0.00 0.07 0.01 94 1011.6
20260905121853 42 156 0.0 3.0 0.00 0.07 0.01 94 1011.6
20260905121748 42 156 1.0 3.0 0.00 0.07 0.01 94 1011.7
20260905121646 42 156 2.0 3.0 0.00 0.07 0.01 94 1011.7
20260905121555 42 156 1.0 3.0 0.00 0.07 0.01 94 1011.7
20260905121452 42 156 1.0 3.0 0.00 0.07 0.01 94 1011.7
20260905121358 42 156 1.0 3.0 0.00 0.07 0.01 94 1011.7
20260905121256 42 156 0.0 3.0 0.00 0.07 0.01 94 1011.7
20260905121200 42 156 1.0 3.0 0.00 0.07 0.01 94 1011.6
20260905121055 42 156 1.0 3.0 0.00 0.07 0.01 94 1011.7
20260905121001 42 156 1.0 3.0 0.00 0.07 0.01 94 1011.7
20260905120842 42 156 2.0 3.0 0.00 0.07 0.01 94 1011.6
20260905120808 42 156 2.0 3.0 0.00 0.07 0.01 94 1011.6
20260905120647 42 156 1.0 3.0 0.00 0.07 0.01 94 1011.6
20260905120603 42 156 1.0 3.0 0.00 0.07 0.01 94 1011.5